<?xml version="1.0" encoding="UTF-8" standalone="no" ?>
<gpx xmlns="http://www.topografix.com/GPX/1/1" xmlns:xsi="http://www.w3.org/2001/XMLSchema-instance" xsi:schemaLocation="http://www.topografix.com/GPX/1/1 http://www.topografix.com/GPX/1/1/gpx.xsd" version="1.1" creator="VisuGPX - https://www.visugpx.com">
  <metadata>
    <name>3. Château Franco-Allemand 25_07_2025/07/2020 à 10:17</name>
    <desc><![CDATA[Avec :
- Florent
- Noah
- Anthony]]></desc>
  </metadata>
  <trk>
    <name><![CDATA[Randonnée du 25/07/2020 à 10:17]]></name>
    <trkseg>
      <trkpt lat="49.06004" lon="7.74634">
        <ele>272</ele>
        <time>2020-07-25T10:17:04+02:00</time>
      </trkpt>
      <trkpt lat="49.06025" lon="7.74644">
        <ele>271</ele>
        <time>2020-07-25T10:19:12+02:00</time>
      </trkpt>
      <trkpt lat="49.06026" lon="7.74679">
        <ele>274</ele>
        <time>2020-07-25T10:19:12+02:00</time>
      </trkpt>
      <trkpt lat="49.06025" lon="7.74714">
        <ele>272</ele>
        <time>2020-07-25T10:19:12+02:00</time>
      </trkpt>
      <trkpt lat="49.06035" lon="7.74748">
        <ele>270</ele>
        <time>2020-07-25T10:19:12+02:00</time>
      </trkpt>
      <trkpt lat="49.06037" lon="7.74784">
        <ele>274</ele>
        <time>2020-07-25T10:19:12+02:00</time>
      </trkpt>
      <trkpt lat="49.06044" lon="7.74817">
        <ele>274</ele>
        <time>2020-07-25T10:21:20+02:00</time>
      </trkpt>
      <trkpt lat="49.06058" lon="7.74845">
        <ele>274</ele>
        <time>2020-07-25T10:21:20+02:00</time>
      </trkpt>
      <trkpt lat="49.06072" lon="7.74872">
        <ele>273</ele>
        <time>2020-07-25T10:21:20+02:00</time>
      </trkpt>
      <trkpt lat="49.06084" lon="7.74901">
        <ele>275</ele>
        <time>2020-07-25T10:21:20+02:00</time>
      </trkpt>
      <trkpt lat="49.06085" lon="7.74936">
        <ele>278</ele>
        <time>2020-07-25T10:23:28+02:00</time>
      </trkpt>
      <trkpt lat="49.06082" lon="7.74971">
        <ele>280</ele>
        <time>2020-07-25T10:23:28+02:00</time>
      </trkpt>
      <trkpt lat="49.06084" lon="7.74935">
        <ele>273</ele>
        <time>2020-07-25T10:23:28+02:00</time>
      </trkpt>
      <trkpt lat="49.06105" lon="7.74952">
        <ele>269</ele>
        <time>2020-07-25T10:25:36+02:00</time>
      </trkpt>
      <trkpt lat="49.06123" lon="7.7493">
        <ele>275</ele>
        <time>2020-07-25T10:25:36+02:00</time>
      </trkpt>
      <trkpt lat="49.06121" lon="7.74894">
        <ele>274</ele>
        <time>2020-07-25T10:25:36+02:00</time>
      </trkpt>
      <trkpt lat="49.06119" lon="7.7486">
        <ele>276</ele>
        <time>2020-07-25T10:25:36+02:00</time>
      </trkpt>
      <trkpt lat="49.06141" lon="7.74865">
        <ele>283</ele>
        <time>2020-07-25T10:25:36+02:00</time>
      </trkpt>
      <trkpt lat="49.06154" lon="7.74896">
        <ele>287</ele>
        <time>2020-07-25T10:27:44+02:00</time>
      </trkpt>
      <trkpt lat="49.06172" lon="7.74916">
        <ele>290</ele>
        <time>2020-07-25T10:27:44+02:00</time>
      </trkpt>
      <trkpt lat="49.06195" lon="7.74915">
        <ele>290</ele>
        <time>2020-07-25T10:27:44+02:00</time>
      </trkpt>
      <trkpt lat="49.06217" lon="7.74923">
        <ele>290</ele>
        <time>2020-07-25T10:27:44+02:00</time>
      </trkpt>
      <trkpt lat="49.06239" lon="7.74934">
        <ele>293</ele>
        <time>2020-07-25T10:27:44+02:00</time>
      </trkpt>
      <trkpt lat="49.06263" lon="7.74934">
        <ele>298</ele>
        <time>2020-07-25T10:27:44+02:00</time>
      </trkpt>
      <trkpt lat="49.06286" lon="7.7494">
        <ele>302</ele>
        <time>2020-07-25T10:27:44+02:00</time>
      </trkpt>
      <trkpt lat="49.06308" lon="7.74936">
        <ele>307</ele>
        <time>2020-07-25T10:29:52+02:00</time>
      </trkpt>
      <trkpt lat="49.06331" lon="7.74938">
        <ele>307</ele>
        <time>2020-07-25T10:29:52+02:00</time>
      </trkpt>
      <trkpt lat="49.06354" lon="7.74947">
        <ele>309</ele>
        <time>2020-07-25T10:29:52+02:00</time>
      </trkpt>
      <trkpt lat="49.06333" lon="7.74957">
        <ele>311</ele>
        <time>2020-07-25T10:29:52+02:00</time>
      </trkpt>
      <trkpt lat="49.06311" lon="7.74966">
        <ele>318</ele>
        <time>2020-07-25T10:29:52+02:00</time>
      </trkpt>
      <trkpt lat="49.06303" lon="7.74999">
        <ele>328</ele>
        <time>2020-07-25T10:32:00+02:00</time>
      </trkpt>
      <trkpt lat="49.0631" lon="7.75032">
        <ele>326</ele>
        <time>2020-07-25T10:32:00+02:00</time>
      </trkpt>
      <trkpt lat="49.06297" lon="7.75061">
        <ele>335</ele>
        <time>2020-07-25T10:32:00+02:00</time>
      </trkpt>
      <trkpt lat="49.06279" lon="7.75081">
        <ele>342</ele>
        <time>2020-07-25T10:34:08+02:00</time>
      </trkpt>
      <trkpt lat="49.06268" lon="7.75112">
        <ele>339</ele>
        <time>2020-07-25T10:34:08+02:00</time>
      </trkpt>
      <trkpt lat="49.06261" lon="7.75145">
        <ele>343</ele>
        <time>2020-07-25T10:34:08+02:00</time>
      </trkpt>
      <trkpt lat="49.06265" lon="7.75179">
        <ele>343</ele>
        <time>2020-07-25T10:34:08+02:00</time>
      </trkpt>
      <trkpt lat="49.06266" lon="7.75215">
        <ele>343</ele>
        <time>2020-07-25T10:34:08+02:00</time>
      </trkpt>
      <trkpt lat="49.06275" lon="7.75248">
        <ele>352</ele>
        <time>2020-07-25T10:36:16+02:00</time>
      </trkpt>
      <trkpt lat="49.06287" lon="7.75277">
        <ele>351</ele>
        <time>2020-07-25T10:36:16+02:00</time>
      </trkpt>
      <trkpt lat="49.06303" lon="7.75306">
        <ele>354</ele>
        <time>2020-07-25T10:36:16+02:00</time>
      </trkpt>
      <trkpt lat="49.06317" lon="7.75336">
        <ele>358</ele>
        <time>2020-07-25T10:36:16+02:00</time>
      </trkpt>
      <trkpt lat="49.06333" lon="7.7536">
        <ele>363</ele>
        <time>2020-07-25T10:36:16+02:00</time>
      </trkpt>
      <trkpt lat="49.06347" lon="7.75388">
        <ele>366</ele>
        <time>2020-07-25T10:36:16+02:00</time>
      </trkpt>
      <trkpt lat="49.06362" lon="7.75417">
        <ele>370</ele>
        <time>2020-07-25T10:38:24+02:00</time>
      </trkpt>
      <trkpt lat="49.06372" lon="7.75449">
        <ele>374</ele>
        <time>2020-07-25T10:38:24+02:00</time>
      </trkpt>
      <trkpt lat="49.06374" lon="7.75483">
        <ele>380</ele>
        <time>2020-07-25T10:38:24+02:00</time>
      </trkpt>
      <trkpt lat="49.06382" lon="7.75517">
        <ele>385</ele>
        <time>2020-07-25T10:38:24+02:00</time>
      </trkpt>
      <trkpt lat="49.06389" lon="7.75549">
        <ele>388</ele>
        <time>2020-07-25T10:38:24+02:00</time>
      </trkpt>
      <trkpt lat="49.06396" lon="7.75582">
        <ele>389</ele>
        <time>2020-07-25T10:40:32+02:00</time>
      </trkpt>
      <trkpt lat="49.06401" lon="7.75617">
        <ele>388</ele>
        <time>2020-07-25T10:40:32+02:00</time>
      </trkpt>
      <trkpt lat="49.06412" lon="7.75647">
        <ele>386</ele>
        <time>2020-07-25T10:40:32+02:00</time>
      </trkpt>
      <trkpt lat="49.06419" lon="7.7568">
        <ele>392</ele>
        <time>2020-07-25T10:42:40+02:00</time>
      </trkpt>
      <trkpt lat="49.06422" lon="7.75714">
        <ele>394</ele>
        <time>2020-07-25T10:42:40+02:00</time>
      </trkpt>
      <trkpt lat="49.06425" lon="7.75749">
        <ele>396</ele>
        <time>2020-07-25T10:42:40+02:00</time>
      </trkpt>
      <trkpt lat="49.06428" lon="7.75784">
        <ele>395</ele>
        <time>2020-07-25T10:42:40+02:00</time>
      </trkpt>
      <trkpt lat="49.06435" lon="7.75751">
        <ele>406</ele>
        <time>2020-07-25T10:44:48+02:00</time>
      </trkpt>
      <trkpt lat="49.06445" lon="7.75782">
        <ele>410</ele>
        <time>2020-07-25T10:44:48+02:00</time>
      </trkpt>
      <trkpt lat="49.06451" lon="7.75816">
        <ele>418</ele>
        <time>2020-07-25T10:44:48+02:00</time>
      </trkpt>
      <trkpt lat="49.06457" lon="7.75849">
        <ele>416</ele>
        <time>2020-07-25T10:46:56+02:00</time>
      </trkpt>
      <trkpt lat="49.06463" lon="7.75883">
        <ele>421</ele>
        <time>2020-07-25T10:46:56+02:00</time>
      </trkpt>
      <trkpt lat="49.06471" lon="7.75916">
        <ele>423</ele>
        <time>2020-07-25T10:46:56+02:00</time>
      </trkpt>
      <trkpt lat="49.06481" lon="7.75948">
        <ele>425</ele>
        <time>2020-07-25T10:46:56+02:00</time>
      </trkpt>
      <trkpt lat="49.06494" lon="7.75977">
        <ele>433</ele>
        <time>2020-07-25T10:46:56+02:00</time>
      </trkpt>
      <trkpt lat="49.06502" lon="7.76009">
        <ele>431</ele>
        <time>2020-07-25T10:46:56+02:00</time>
      </trkpt>
      <trkpt lat="49.06511" lon="7.76041">
        <ele>434</ele>
        <time>2020-07-25T10:49:04+02:00</time>
      </trkpt>
      <trkpt lat="49.06517" lon="7.76075">
        <ele>438</ele>
        <time>2020-07-25T10:49:04+02:00</time>
      </trkpt>
      <trkpt lat="49.0653" lon="7.76104">
        <ele>443</ele>
        <time>2020-07-25T10:49:04+02:00</time>
      </trkpt>
      <trkpt lat="49.06542" lon="7.76119">
        <ele>389</ele>
        <time>2020-07-25T10:49:04+02:00</time>
      </trkpt>
      <trkpt lat="49.06598" lon="7.76105">
        <ele>408</ele>
        <time>2020-07-25T10:49:04+02:00</time>
      </trkpt>
      <trkpt lat="49.06566" lon="7.76148">
        <ele>406</ele>
        <time>2020-07-25T10:49:04+02:00</time>
      </trkpt>
      <trkpt lat="49.06553" lon="7.76176">
        <ele>455</ele>
        <time>2020-07-25T10:51:12+02:00</time>
      </trkpt>
      <trkpt lat="49.06558" lon="7.7621">
        <ele>453</ele>
        <time>2020-07-25T10:51:12+02:00</time>
      </trkpt>
      <trkpt lat="49.0656" lon="7.76246">
        <ele>460</ele>
        <time>2020-07-25T10:51:12+02:00</time>
      </trkpt>
      <trkpt lat="49.06564" lon="7.7628">
        <ele>463</ele>
        <time>2020-07-25T10:51:12+02:00</time>
      </trkpt>
      <trkpt lat="49.06572" lon="7.76313">
        <ele>470</ele>
        <time>2020-07-25T10:53:20+02:00</time>
      </trkpt>
      <trkpt lat="49.06576" lon="7.76347">
        <ele>472</ele>
        <time>2020-07-25T10:53:20+02:00</time>
      </trkpt>
      <trkpt lat="49.06587" lon="7.76378">
        <ele>471</ele>
        <time>2020-07-25T10:53:20+02:00</time>
      </trkpt>
      <trkpt lat="49.06595" lon="7.76413">
        <ele>472</ele>
        <time>2020-07-25T10:53:20+02:00</time>
      </trkpt>
      <trkpt lat="49.06611" lon="7.76437">
        <ele>472</ele>
        <time>2020-07-25T10:53:20+02:00</time>
      </trkpt>
      <trkpt lat="49.06622" lon="7.76468">
        <ele>478</ele>
        <time>2020-07-25T10:53:20+02:00</time>
      </trkpt>
      <trkpt lat="49.0664" lon="7.76489">
        <ele>482</ele>
        <time>2020-07-25T10:55:28+02:00</time>
      </trkpt>
      <trkpt lat="49.06653" lon="7.76518">
        <ele>485</ele>
        <time>2020-07-25T10:55:28+02:00</time>
      </trkpt>
      <trkpt lat="49.06667" lon="7.76545">
        <ele>488</ele>
        <time>2020-07-25T10:55:28+02:00</time>
      </trkpt>
      <trkpt lat="49.07012" lon="7.7701">
        <ele>486</ele>
        <time>2020-07-25T11:06:08+02:00</time>
      </trkpt>
      <trkpt lat="49.06975" lon="7.77019">
        <ele>553</ele>
        <time>2020-07-25T11:06:08+02:00</time>
      </trkpt>
      <trkpt lat="49.07108" lon="7.77159">
        <ele>509</ele>
        <time>2020-07-25T11:14:40+02:00</time>
      </trkpt>
      <trkpt lat="49.07089" lon="7.77198">
        <ele>547</ele>
        <time>2020-07-25T11:14:40+02:00</time>
      </trkpt>
      <trkpt lat="49.07068" lon="7.77182">
        <ele>549</ele>
        <time>2020-07-25T11:14:40+02:00</time>
      </trkpt>
      <trkpt lat="49.0706" lon="7.77151">
        <ele>561</ele>
        <time>2020-07-25T11:14:40+02:00</time>
      </trkpt>
      <trkpt lat="49.07066" lon="7.77183">
        <ele>572</ele>
        <time>2020-07-25T11:16:48+02:00</time>
      </trkpt>
      <trkpt lat="49.07076" lon="7.77217">
        <ele>579</ele>
        <time>2020-07-25T11:16:48+02:00</time>
      </trkpt>
      <trkpt lat="49.07084" lon="7.77251">
        <ele>578</ele>
        <time>2020-07-25T11:16:48+02:00</time>
      </trkpt>
      <trkpt lat="49.07096" lon="7.7728">
        <ele>578</ele>
        <time>2020-07-25T11:18:56+02:00</time>
      </trkpt>
      <trkpt lat="49.07099" lon="7.77315">
        <ele>580</ele>
        <time>2020-07-25T11:18:56+02:00</time>
      </trkpt>
      <trkpt lat="49.07102" lon="7.7735">
        <ele>578</ele>
        <time>2020-07-25T11:21:04+02:00</time>
      </trkpt>
      <trkpt lat="49.07105" lon="7.77386">
        <ele>576</ele>
        <time>2020-07-25T11:21:04+02:00</time>
      </trkpt>
      <trkpt lat="49.07108" lon="7.7742">
        <ele>578</ele>
        <time>2020-07-25T11:21:04+02:00</time>
      </trkpt>
      <trkpt lat="49.07112" lon="7.77456">
        <ele>581</ele>
        <time>2020-07-25T11:21:04+02:00</time>
      </trkpt>
      <trkpt lat="49.07112" lon="7.77491">
        <ele>577</ele>
        <time>2020-07-25T11:21:04+02:00</time>
      </trkpt>
      <trkpt lat="49.07109" lon="7.77525">
        <ele>580</ele>
        <time>2020-07-25T11:23:12+02:00</time>
      </trkpt>
      <trkpt lat="49.07111" lon="7.77561">
        <ele>572</ele>
        <time>2020-07-25T11:23:12+02:00</time>
      </trkpt>
      <trkpt lat="49.07119" lon="7.77594">
        <ele>572</ele>
        <time>2020-07-25T11:25:20+02:00</time>
      </trkpt>
      <trkpt lat="49.07126" lon="7.77626">
        <ele>572</ele>
        <time>2020-07-25T11:25:20+02:00</time>
      </trkpt>
      <trkpt lat="49.07137" lon="7.77657">
        <ele>572</ele>
        <time>2020-07-25T11:25:20+02:00</time>
      </trkpt>
      <trkpt lat="49.07143" lon="7.7769">
        <ele>576</ele>
        <time>2020-07-25T11:27:28+02:00</time>
      </trkpt>
      <trkpt lat="49.07154" lon="7.77721">
        <ele>567</ele>
        <time>2020-07-25T11:29:36+02:00</time>
      </trkpt>
      <trkpt lat="49.07166" lon="7.77751">
        <ele>571</ele>
        <time>2020-07-25T11:29:36+02:00</time>
      </trkpt>
      <trkpt lat="49.07184" lon="7.77772">
        <ele>569</ele>
        <time>2020-07-25T11:29:36+02:00</time>
      </trkpt>
      <trkpt lat="49.07198" lon="7.778">
        <ele>566</ele>
        <time>2020-07-25T11:31:44+02:00</time>
      </trkpt>
      <trkpt lat="49.07149" lon="7.77817">
        <ele>561</ele>
        <time>2020-07-25T11:33:52+02:00</time>
      </trkpt>
      <trkpt lat="49.07173" lon="7.77767">
        <ele>561</ele>
        <time>2020-07-25T11:33:52+02:00</time>
      </trkpt>
      <trkpt lat="49.07185" lon="7.77797">
        <ele>559</ele>
        <time>2020-07-25T11:33:52+02:00</time>
      </trkpt>
      <trkpt lat="49.07202" lon="7.77819">
        <ele>555</ele>
        <time>2020-07-25T11:33:52+02:00</time>
      </trkpt>
      <trkpt lat="49.07225" lon="7.77811">
        <ele>548</ele>
        <time>2020-07-25T11:36:00+02:00</time>
      </trkpt>
      <trkpt lat="49.07238" lon="7.7784">
        <ele>546</ele>
        <time>2020-07-25T11:36:00+02:00</time>
      </trkpt>
      <trkpt lat="49.07238" lon="7.77875">
        <ele>536</ele>
        <time>2020-07-25T11:38:08+02:00</time>
      </trkpt>
      <trkpt lat="49.07253" lon="7.77902">
        <ele>530</ele>
        <time>2020-07-25T11:38:08+02:00</time>
      </trkpt>
      <trkpt lat="49.07265" lon="7.77932">
        <ele>530</ele>
        <time>2020-07-25T11:38:08+02:00</time>
      </trkpt>
      <trkpt lat="49.0728" lon="7.77958">
        <ele>526</ele>
        <time>2020-07-25T11:40:16+02:00</time>
      </trkpt>
      <trkpt lat="49.073" lon="7.77977">
        <ele>517</ele>
        <time>2020-07-25T11:40:16+02:00</time>
      </trkpt>
      <trkpt lat="49.07316" lon="7.78001">
        <ele>509</ele>
        <time>2020-07-25T11:40:16+02:00</time>
      </trkpt>
      <trkpt lat="49.07329" lon="7.7803">
        <ele>504</ele>
        <time>2020-07-25T11:40:16+02:00</time>
      </trkpt>
      <trkpt lat="49.07346" lon="7.78054">
        <ele>502</ele>
        <time>2020-07-25T11:42:24+02:00</time>
      </trkpt>
      <trkpt lat="49.07346" lon="7.78088">
        <ele>495</ele>
        <time>2020-07-25T11:42:24+02:00</time>
      </trkpt>
      <trkpt lat="49.07334" lon="7.78117">
        <ele>490</ele>
        <time>2020-07-25T11:42:24+02:00</time>
      </trkpt>
      <trkpt lat="49.07335" lon="7.78163">
        <ele>502</ele>
        <time>2020-07-25T11:57:20+02:00</time>
      </trkpt>
      <trkpt lat="49.07313" lon="7.78174">
        <ele>479</ele>
        <time>2020-07-25T11:59:28+02:00</time>
      </trkpt>
      <trkpt lat="49.07293" lon="7.78187">
        <ele>473</ele>
        <time>2020-07-25T11:59:28+02:00</time>
      </trkpt>
      <trkpt lat="49.07276" lon="7.78211">
        <ele>472</ele>
        <time>2020-07-25T11:59:28+02:00</time>
      </trkpt>
      <trkpt lat="49.07256" lon="7.78228">
        <ele>479</ele>
        <time>2020-07-25T12:01:36+02:00</time>
      </trkpt>
      <trkpt lat="49.07237" lon="7.78247">
        <ele>478</ele>
        <time>2020-07-25T12:01:36+02:00</time>
      </trkpt>
      <trkpt lat="49.07225" lon="7.78277">
        <ele>476</ele>
        <time>2020-07-25T12:01:36+02:00</time>
      </trkpt>
      <trkpt lat="49.07213" lon="7.78306">
        <ele>475</ele>
        <time>2020-07-25T12:01:36+02:00</time>
      </trkpt>
      <trkpt lat="49.07201" lon="7.78336">
        <ele>476</ele>
        <time>2020-07-25T12:03:44+02:00</time>
      </trkpt>
      <trkpt lat="49.07201" lon="7.78372">
        <ele>481</ele>
        <time>2020-07-25T12:03:44+02:00</time>
      </trkpt>
      <trkpt lat="49.07197" lon="7.78405">
        <ele>483</ele>
        <time>2020-07-25T12:03:44+02:00</time>
      </trkpt>
      <trkpt lat="49.07189" lon="7.78439">
        <ele>493</ele>
        <time>2020-07-25T12:03:44+02:00</time>
      </trkpt>
      <trkpt lat="49.07173" lon="7.78463">
        <ele>507</ele>
        <time>2020-07-25T12:03:44+02:00</time>
      </trkpt>
      <trkpt lat="49.0715" lon="7.78472">
        <ele>509</ele>
        <time>2020-07-25T12:05:52+02:00</time>
      </trkpt>
      <trkpt lat="49.07141" lon="7.78505">
        <ele>505</ele>
        <time>2020-07-25T12:05:52+02:00</time>
      </trkpt>
      <trkpt lat="49.07145" lon="7.78539">
        <ele>512</ele>
        <time>2020-07-25T12:05:52+02:00</time>
      </trkpt>
      <trkpt lat="49.07141" lon="7.78575">
        <ele>517</ele>
        <time>2020-07-25T12:05:52+02:00</time>
      </trkpt>
      <trkpt lat="49.07132" lon="7.78608">
        <ele>528</ele>
        <time>2020-07-25T12:08:00+02:00</time>
      </trkpt>
      <trkpt lat="49.0711" lon="7.786">
        <ele>535</ele>
        <time>2020-07-25T12:10:08+02:00</time>
      </trkpt>
      <trkpt lat="49.07088" lon="7.78593">
        <ele>535</ele>
        <time>2020-07-25T12:12:16+02:00</time>
      </trkpt>
      <trkpt lat="49.07065" lon="7.78587">
        <ele>535</ele>
        <time>2020-07-25T12:12:16+02:00</time>
      </trkpt>
      <trkpt lat="49.07152" lon="7.78712">
        <ele>545</ele>
        <time>2020-07-25T12:18:40+02:00</time>
      </trkpt>
      <trkpt lat="49.0715" lon="7.78746">
        <ele>533</ele>
        <time>2020-07-25T12:18:40+02:00</time>
      </trkpt>
      <trkpt lat="49.07159" lon="7.78779">
        <ele>535</ele>
        <time>2020-07-25T12:18:40+02:00</time>
      </trkpt>
      <trkpt lat="49.07144" lon="7.78807">
        <ele>526</ele>
        <time>2020-07-25T12:20:48+02:00</time>
      </trkpt>
      <trkpt lat="49.07122" lon="7.78812">
        <ele>522</ele>
        <time>2020-07-25T12:20:48+02:00</time>
      </trkpt>
      <trkpt lat="49.07099" lon="7.78818">
        <ele>525</ele>
        <time>2020-07-25T12:20:48+02:00</time>
      </trkpt>
      <trkpt lat="49.07077" lon="7.78826">
        <ele>523</ele>
        <time>2020-07-25T12:20:48+02:00</time>
      </trkpt>
      <trkpt lat="49.07055" lon="7.78836">
        <ele>529</ele>
        <time>2020-07-25T12:20:48+02:00</time>
      </trkpt>
      <trkpt lat="49.07033" lon="7.78844">
        <ele>534</ele>
        <time>2020-07-25T12:20:48+02:00</time>
      </trkpt>
      <trkpt lat="49.0701" lon="7.7885">
        <ele>534</ele>
        <time>2020-07-25T12:22:56+02:00</time>
      </trkpt>
      <trkpt lat="49.06987" lon="7.78847">
        <ele>533</ele>
        <time>2020-07-25T12:22:56+02:00</time>
      </trkpt>
      <trkpt lat="49.06964" lon="7.78843">
        <ele>530</ele>
        <time>2020-07-25T12:22:56+02:00</time>
      </trkpt>
      <trkpt lat="49.06941" lon="7.78837">
        <ele>531</ele>
        <time>2020-07-25T12:22:56+02:00</time>
      </trkpt>
      <trkpt lat="49.06918" lon="7.78825">
        <ele>519</ele>
        <time>2020-07-25T12:22:56+02:00</time>
      </trkpt>
      <trkpt lat="49.06896" lon="7.78816">
        <ele>518</ele>
        <time>2020-07-25T12:22:56+02:00</time>
      </trkpt>
      <trkpt lat="49.06874" lon="7.78805">
        <ele>516</ele>
        <time>2020-07-25T12:22:56+02:00</time>
      </trkpt>
      <trkpt lat="49.06853" lon="7.78793">
        <ele>516</ele>
        <time>2020-07-25T12:22:56+02:00</time>
      </trkpt>
      <trkpt lat="49.06833" lon="7.78776">
        <ele>520</ele>
        <time>2020-07-25T12:25:04+02:00</time>
      </trkpt>
      <trkpt lat="49.06812" lon="7.7876">
        <ele>516</ele>
        <time>2020-07-25T12:25:04+02:00</time>
      </trkpt>
      <trkpt lat="49.06791" lon="7.78742">
        <ele>508</ele>
        <time>2020-07-25T12:25:04+02:00</time>
      </trkpt>
      <trkpt lat="49.06772" lon="7.78725">
        <ele>509</ele>
        <time>2020-07-25T12:25:04+02:00</time>
      </trkpt>
      <trkpt lat="49.06751" lon="7.78711">
        <ele>506</ele>
        <time>2020-07-25T12:25:04+02:00</time>
      </trkpt>
      <trkpt lat="49.0673" lon="7.78698">
        <ele>500</ele>
        <time>2020-07-25T12:27:12+02:00</time>
      </trkpt>
      <trkpt lat="49.06707" lon="7.78694">
        <ele>496</ele>
        <time>2020-07-25T12:27:12+02:00</time>
      </trkpt>
      <trkpt lat="49.06683" lon="7.78692">
        <ele>495</ele>
        <time>2020-07-25T12:27:12+02:00</time>
      </trkpt>
      <trkpt lat="49.0666" lon="7.78688">
        <ele>491</ele>
        <time>2020-07-25T12:27:12+02:00</time>
      </trkpt>
      <trkpt lat="49.06638" lon="7.78684">
        <ele>487</ele>
        <time>2020-07-25T12:27:12+02:00</time>
      </trkpt>
      <trkpt lat="49.06616" lon="7.78676">
        <ele>483</ele>
        <time>2020-07-25T12:27:12+02:00</time>
      </trkpt>
      <trkpt lat="49.06593" lon="7.78674">
        <ele>479</ele>
        <time>2020-07-25T12:27:12+02:00</time>
      </trkpt>
      <trkpt lat="49.06573" lon="7.78689">
        <ele>483</ele>
        <time>2020-07-25T12:29:20+02:00</time>
      </trkpt>
      <trkpt lat="49.0655" lon="7.78687">
        <ele>489</ele>
        <time>2020-07-25T12:29:20+02:00</time>
      </trkpt>
      <trkpt lat="49.06527" lon="7.7869">
        <ele>480</ele>
        <time>2020-07-25T12:29:20+02:00</time>
      </trkpt>
      <trkpt lat="49.06506" lon="7.78705">
        <ele>477</ele>
        <time>2020-07-25T12:29:20+02:00</time>
      </trkpt>
      <trkpt lat="49.06484" lon="7.787">
        <ele>472</ele>
        <time>2020-07-25T12:29:20+02:00</time>
      </trkpt>
      <trkpt lat="49.06466" lon="7.78679">
        <ele>484</ele>
        <time>2020-07-25T12:31:28+02:00</time>
      </trkpt>
      <trkpt lat="49.06444" lon="7.78668">
        <ele>493</ele>
        <time>2020-07-25T12:31:28+02:00</time>
      </trkpt>
      <trkpt lat="49.06421" lon="7.78667">
        <ele>494</ele>
        <time>2020-07-25T12:31:28+02:00</time>
      </trkpt>
      <trkpt lat="49.06398" lon="7.7867">
        <ele>499</ele>
        <time>2020-07-25T12:31:28+02:00</time>
      </trkpt>
      <trkpt lat="49.06376" lon="7.78676">
        <ele>501</ele>
        <time>2020-07-25T12:31:28+02:00</time>
      </trkpt>
      <trkpt lat="49.06352" lon="7.7867">
        <ele>502</ele>
        <time>2020-07-25T12:35:44+02:00</time>
      </trkpt>
      <trkpt lat="49.0633" lon="7.78658">
        <ele>512</ele>
        <time>2020-07-25T12:35:44+02:00</time>
      </trkpt>
      <trkpt lat="49.06308" lon="7.78646">
        <ele>518</ele>
        <time>2020-07-25T12:35:44+02:00</time>
      </trkpt>
      <trkpt lat="49.06289" lon="7.78625">
        <ele>520</ele>
        <time>2020-07-25T12:35:44+02:00</time>
      </trkpt>
      <trkpt lat="49.0627" lon="7.78602">
        <ele>526</ele>
        <time>2020-07-25T12:35:44+02:00</time>
      </trkpt>
      <trkpt lat="49.06251" lon="7.78581">
        <ele>533</ele>
        <time>2020-07-25T12:37:52+02:00</time>
      </trkpt>
      <trkpt lat="49.06234" lon="7.78558">
        <ele>540</ele>
        <time>2020-07-25T12:37:52+02:00</time>
      </trkpt>
      <trkpt lat="49.06214" lon="7.78541">
        <ele>541</ele>
        <time>2020-07-25T12:37:52+02:00</time>
      </trkpt>
      <trkpt lat="49.06197" lon="7.78517">
        <ele>549</ele>
        <time>2020-07-25T12:37:52+02:00</time>
      </trkpt>
      <trkpt lat="49.06177" lon="7.78499">
        <ele>549</ele>
        <time>2020-07-25T12:37:52+02:00</time>
      </trkpt>
      <trkpt lat="49.06156" lon="7.78485">
        <ele>550</ele>
        <time>2020-07-25T12:37:52+02:00</time>
      </trkpt>
      <trkpt lat="49.06137" lon="7.78465">
        <ele>551</ele>
        <time>2020-07-25T12:40:00+02:00</time>
      </trkpt>
      <trkpt lat="49.0612" lon="7.78442">
        <ele>552</ele>
        <time>2020-07-25T12:40:00+02:00</time>
      </trkpt>
      <trkpt lat="49.06104" lon="7.78417">
        <ele>556</ele>
        <time>2020-07-25T12:40:00+02:00</time>
      </trkpt>
      <trkpt lat="49.06092" lon="7.78388">
        <ele>561</ele>
        <time>2020-07-25T12:40:00+02:00</time>
      </trkpt>
      <trkpt lat="49.06073" lon="7.78408">
        <ele>569</ele>
        <time>2020-07-25T12:42:08+02:00</time>
      </trkpt>
      <trkpt lat="49.06073" lon="7.78444">
        <ele>572</ele>
        <time>2020-07-25T12:42:08+02:00</time>
      </trkpt>
      <trkpt lat="49.0608" lon="7.78477">
        <ele>573</ele>
        <time>2020-07-25T12:42:08+02:00</time>
      </trkpt>
      <trkpt lat="49.06093" lon="7.78507">
        <ele>578</ele>
        <time>2020-07-25T12:42:08+02:00</time>
      </trkpt>
      <trkpt lat="49.06109" lon="7.78534">
        <ele>581</ele>
        <time>2020-07-25T12:42:08+02:00</time>
      </trkpt>
      <trkpt lat="49.06123" lon="7.78562">
        <ele>580</ele>
        <time>2020-07-25T12:42:08+02:00</time>
      </trkpt>
      <trkpt lat="49.06138" lon="7.78588">
        <ele>585</ele>
        <time>2020-07-25T12:44:16+02:00</time>
      </trkpt>
      <trkpt lat="49.06153" lon="7.78615">
        <ele>585</ele>
        <time>2020-07-25T12:44:16+02:00</time>
      </trkpt>
      <trkpt lat="49.06169" lon="7.78641">
        <ele>586</ele>
        <time>2020-07-25T12:44:16+02:00</time>
      </trkpt>
      <trkpt lat="49.06183" lon="7.78671">
        <ele>588</ele>
        <time>2020-07-25T12:44:16+02:00</time>
      </trkpt>
      <trkpt lat="49.0616" lon="7.78658">
        <ele>586</ele>
        <time>2020-07-25T12:44:16+02:00</time>
      </trkpt>
      <trkpt lat="49.0614" lon="7.78645">
        <ele>586</ele>
        <time>2020-07-25T12:46:24+02:00</time>
      </trkpt>
      <trkpt lat="49.06117" lon="7.78648">
        <ele>589</ele>
        <time>2020-07-25T12:46:24+02:00</time>
      </trkpt>
      <trkpt lat="49.06094" lon="7.78655">
        <ele>602</ele>
        <time>2020-07-25T12:48:32+02:00</time>
      </trkpt>
      <trkpt lat="49.06117" lon="7.78653">
        <ele>604</ele>
        <time>2020-07-25T12:50:40+02:00</time>
      </trkpt>
      <trkpt lat="49.06136" lon="7.78672">
        <ele>602</ele>
        <time>2020-07-25T12:50:40+02:00</time>
      </trkpt>
      <trkpt lat="49.06153" lon="7.78697">
        <ele>603</ele>
        <time>2020-07-25T12:50:40+02:00</time>
      </trkpt>
      <trkpt lat="49.06162" lon="7.78728">
        <ele>604</ele>
        <time>2020-07-25T12:50:40+02:00</time>
      </trkpt>
      <trkpt lat="49.06166" lon="7.78763">
        <ele>606</ele>
        <time>2020-07-25T12:50:40+02:00</time>
      </trkpt>
      <trkpt lat="49.06056" lon="7.78562">
        <ele>607</ele>
        <time>2020-07-25T12:57:04+02:00</time>
      </trkpt>
      <trkpt lat="49.06012" lon="7.78595">
        <ele>607</ele>
        <time>2020-07-25T12:57:04+02:00</time>
      </trkpt>
      <trkpt lat="49.06082" lon="7.78628">
        <ele>607</ele>
        <time>2020-07-25T12:57:04+02:00</time>
      </trkpt>
      <trkpt lat="49.06061" lon="7.78613">
        <ele>600</ele>
        <time>2020-07-25T12:57:04+02:00</time>
      </trkpt>
      <trkpt lat="49.06045" lon="7.78587">
        <ele>601</ele>
        <time>2020-07-25T12:57:04+02:00</time>
      </trkpt>
      <trkpt lat="49.06029" lon="7.7856">
        <ele>602</ele>
        <time>2020-07-25T12:57:04+02:00</time>
      </trkpt>
      <trkpt lat="49.0601" lon="7.7854">
        <ele>599</ele>
        <time>2020-07-25T12:59:12+02:00</time>
      </trkpt>
      <trkpt lat="49.05993" lon="7.78517">
        <ele>603</ele>
        <time>2020-07-25T12:59:12+02:00</time>
      </trkpt>
      <trkpt lat="49.05979" lon="7.78487">
        <ele>601</ele>
        <time>2020-07-25T12:59:12+02:00</time>
      </trkpt>
      <trkpt lat="49.05963" lon="7.78461">
        <ele>595</ele>
        <time>2020-07-25T12:59:12+02:00</time>
      </trkpt>
      <trkpt lat="49.05944" lon="7.7844">
        <ele>589</ele>
        <time>2020-07-25T12:59:12+02:00</time>
      </trkpt>
      <trkpt lat="49.05923" lon="7.78426">
        <ele>587</ele>
        <time>2020-07-25T12:59:12+02:00</time>
      </trkpt>
      <trkpt lat="49.059" lon="7.78418">
        <ele>586</ele>
        <time>2020-07-25T13:01:20+02:00</time>
      </trkpt>
      <trkpt lat="49.05877" lon="7.78407">
        <ele>579</ele>
        <time>2020-07-25T13:01:20+02:00</time>
      </trkpt>
      <trkpt lat="49.05856" lon="7.78391">
        <ele>564</ele>
        <time>2020-07-25T13:01:20+02:00</time>
      </trkpt>
      <trkpt lat="49.05834" lon="7.78389">
        <ele>556</ele>
        <time>2020-07-25T13:01:20+02:00</time>
      </trkpt>
      <trkpt lat="49.05811" lon="7.7839">
        <ele>559</ele>
        <time>2020-07-25T13:01:20+02:00</time>
      </trkpt>
      <trkpt lat="49.05787" lon="7.78389">
        <ele>560</ele>
        <time>2020-07-25T13:01:20+02:00</time>
      </trkpt>
      <trkpt lat="49.05764" lon="7.78386">
        <ele>558</ele>
        <time>2020-07-25T13:01:20+02:00</time>
      </trkpt>
      <trkpt lat="49.0574" lon="7.78385">
        <ele>555</ele>
        <time>2020-07-25T13:03:28+02:00</time>
      </trkpt>
      <trkpt lat="49.05716" lon="7.78379">
        <ele>556</ele>
        <time>2020-07-25T13:03:28+02:00</time>
      </trkpt>
      <trkpt lat="49.05695" lon="7.78366">
        <ele>559</ele>
        <time>2020-07-25T13:03:28+02:00</time>
      </trkpt>
      <trkpt lat="49.05674" lon="7.78351">
        <ele>567</ele>
        <time>2020-07-25T13:03:28+02:00</time>
      </trkpt>
      <trkpt lat="49.05651" lon="7.78349">
        <ele>567</ele>
        <time>2020-07-25T13:05:36+02:00</time>
      </trkpt>
      <trkpt lat="49.05627" lon="7.78352">
        <ele>569</ele>
        <time>2020-07-25T13:05:36+02:00</time>
      </trkpt>
      <trkpt lat="49.05605" lon="7.78346">
        <ele>574</ele>
        <time>2020-07-25T13:05:36+02:00</time>
      </trkpt>
      <trkpt lat="49.05583" lon="7.78336">
        <ele>578</ele>
        <time>2020-07-25T13:05:36+02:00</time>
      </trkpt>
      <trkpt lat="49.0556" lon="7.7833">
        <ele>578</ele>
        <time>2020-07-25T13:05:36+02:00</time>
      </trkpt>
      <trkpt lat="49.05537" lon="7.78334">
        <ele>582</ele>
        <time>2020-07-25T13:07:44+02:00</time>
      </trkpt>
      <trkpt lat="49.05517" lon="7.78351">
        <ele>587</ele>
        <time>2020-07-25T13:07:44+02:00</time>
      </trkpt>
      <trkpt lat="49.05501" lon="7.78375">
        <ele>588</ele>
        <time>2020-07-25T13:07:44+02:00</time>
      </trkpt>
      <trkpt lat="49.05506" lon="7.78388">
        <ele>540.6</ele>
        <time>2020-07-25T13:09:52+02:00</time>
      </trkpt>
      <trkpt lat="49.05535" lon="7.78371">
        <ele>594</ele>
        <time>2020-07-25T13:09:52+02:00</time>
      </trkpt>
      <trkpt lat="49.05529" lon="7.78378">
        <ele>566</ele>
        <time>2020-07-25T13:16:16+02:00</time>
      </trkpt>
      <trkpt lat="49.05543" lon="7.78405">
        <ele>596</ele>
        <time>2020-07-25T13:20:32+02:00</time>
      </trkpt>
      <trkpt lat="49.05547" lon="7.78371">
        <ele>598</ele>
        <time>2020-07-25T13:20:32+02:00</time>
      </trkpt>
      <trkpt lat="49.05523" lon="7.78375">
        <ele>592</ele>
        <time>2020-07-25T13:22:40+02:00</time>
      </trkpt>
      <trkpt lat="49.05507" lon="7.78399">
        <ele>588</ele>
        <time>2020-07-25T13:22:40+02:00</time>
      </trkpt>
      <trkpt lat="49.05498" lon="7.78432">
        <ele>590</ele>
        <time>2020-07-25T13:22:40+02:00</time>
      </trkpt>
      <trkpt lat="49.05485" lon="7.78462">
        <ele>588</ele>
        <time>2020-07-25T13:22:40+02:00</time>
      </trkpt>
      <trkpt lat="49.05472" lon="7.78492">
        <ele>589</ele>
        <time>2020-07-25T13:22:40+02:00</time>
      </trkpt>
      <trkpt lat="49.05455" lon="7.78515">
        <ele>587</ele>
        <time>2020-07-25T13:24:48+02:00</time>
      </trkpt>
      <trkpt lat="49.05433" lon="7.78527">
        <ele>582</ele>
        <time>2020-07-25T13:24:48+02:00</time>
      </trkpt>
      <trkpt lat="49.05414" lon="7.78548">
        <ele>577</ele>
        <time>2020-07-25T13:24:48+02:00</time>
      </trkpt>
      <trkpt lat="49.05395" lon="7.78569">
        <ele>576</ele>
        <time>2020-07-25T13:24:48+02:00</time>
      </trkpt>
      <trkpt lat="49.05375" lon="7.78585">
        <ele>574</ele>
        <time>2020-07-25T13:24:48+02:00</time>
      </trkpt>
      <trkpt lat="49.0536" lon="7.78613">
        <ele>571</ele>
        <time>2020-07-25T13:24:48+02:00</time>
      </trkpt>
      <trkpt lat="49.05337" lon="7.78618">
        <ele>571</ele>
        <time>2020-07-25T13:26:56+02:00</time>
      </trkpt>
      <trkpt lat="49.05319" lon="7.78638">
        <ele>568</ele>
        <time>2020-07-25T13:26:56+02:00</time>
      </trkpt>
      <trkpt lat="49.05328" lon="7.78605">
        <ele>565</ele>
        <time>2020-07-25T13:29:04+02:00</time>
      </trkpt>
      <trkpt lat="49.05343" lon="7.78579">
        <ele>563</ele>
        <time>2020-07-25T13:29:04+02:00</time>
      </trkpt>
      <trkpt lat="49.05358" lon="7.78552">
        <ele>563</ele>
        <time>2020-07-25T13:29:04+02:00</time>
      </trkpt>
      <trkpt lat="49.05369" lon="7.78522">
        <ele>558</ele>
        <time>2020-07-25T13:29:04+02:00</time>
      </trkpt>
      <trkpt lat="49.05385" lon="7.78499">
        <ele>553</ele>
        <time>2020-07-25T13:31:12+02:00</time>
      </trkpt>
      <trkpt lat="49.05398" lon="7.7847">
        <ele>549</ele>
        <time>2020-07-25T13:31:12+02:00</time>
      </trkpt>
      <trkpt lat="49.05408" lon="7.78439">
        <ele>550</ele>
        <time>2020-07-25T13:31:12+02:00</time>
      </trkpt>
      <trkpt lat="49.05413" lon="7.78406">
        <ele>549</ele>
        <time>2020-07-25T13:31:12+02:00</time>
      </trkpt>
      <trkpt lat="49.05422" lon="7.78372">
        <ele>549</ele>
        <time>2020-07-25T13:31:12+02:00</time>
      </trkpt>
      <trkpt lat="49.0543" lon="7.78339">
        <ele>554</ele>
        <time>2020-07-25T13:31:12+02:00</time>
      </trkpt>
      <trkpt lat="49.05435" lon="7.78305">
        <ele>548</ele>
        <time>2020-07-25T13:33:20+02:00</time>
      </trkpt>
      <trkpt lat="49.05446" lon="7.78275">
        <ele>546</ele>
        <time>2020-07-25T13:33:20+02:00</time>
      </trkpt>
      <trkpt lat="49.05454" lon="7.78241">
        <ele>542</ele>
        <time>2020-07-25T13:33:20+02:00</time>
      </trkpt>
      <trkpt lat="49.05458" lon="7.78206">
        <ele>540</ele>
        <time>2020-07-25T13:33:20+02:00</time>
      </trkpt>
      <trkpt lat="49.05465" lon="7.78172">
        <ele>536</ele>
        <time>2020-07-25T13:33:20+02:00</time>
      </trkpt>
      <trkpt lat="49.05471" lon="7.78137">
        <ele>527</ele>
        <time>2020-07-25T13:33:20+02:00</time>
      </trkpt>
      <trkpt lat="49.05456" lon="7.78109">
        <ele>529</ele>
        <time>2020-07-25T13:35:28+02:00</time>
      </trkpt>
      <trkpt lat="49.05439" lon="7.78087">
        <ele>526</ele>
        <time>2020-07-25T13:35:28+02:00</time>
      </trkpt>
      <trkpt lat="49.05421" lon="7.78066">
        <ele>525</ele>
        <time>2020-07-25T13:35:28+02:00</time>
      </trkpt>
      <trkpt lat="49.05401" lon="7.78046">
        <ele>523</ele>
        <time>2020-07-25T13:35:28+02:00</time>
      </trkpt>
      <trkpt lat="49.0538" lon="7.78029">
        <ele>520</ele>
        <time>2020-07-25T13:35:28+02:00</time>
      </trkpt>
      <trkpt lat="49.05361" lon="7.7801">
        <ele>517</ele>
        <time>2020-07-25T13:35:28+02:00</time>
      </trkpt>
      <trkpt lat="49.05341" lon="7.77989">
        <ele>513</ele>
        <time>2020-07-25T13:35:28+02:00</time>
      </trkpt>
      <trkpt lat="49.05322" lon="7.7797">
        <ele>510</ele>
        <time>2020-07-25T13:37:36+02:00</time>
      </trkpt>
      <trkpt lat="49.05303" lon="7.77953">
        <ele>507</ele>
        <time>2020-07-25T13:37:36+02:00</time>
      </trkpt>
      <trkpt lat="49.05285" lon="7.7793">
        <ele>503</ele>
        <time>2020-07-25T13:37:36+02:00</time>
      </trkpt>
      <trkpt lat="49.05264" lon="7.77912">
        <ele>499</ele>
        <time>2020-07-25T13:37:36+02:00</time>
      </trkpt>
      <trkpt lat="49.05242" lon="7.77902">
        <ele>493</ele>
        <time>2020-07-25T13:39:44+02:00</time>
      </trkpt>
      <trkpt lat="49.05225" lon="7.77878">
        <ele>490</ele>
        <time>2020-07-25T13:39:44+02:00</time>
      </trkpt>
      <trkpt lat="49.05204" lon="7.77865">
        <ele>488</ele>
        <time>2020-07-25T13:39:44+02:00</time>
      </trkpt>
      <trkpt lat="49.05185" lon="7.77847">
        <ele>481</ele>
        <time>2020-07-25T13:39:44+02:00</time>
      </trkpt>
      <trkpt lat="49.05166" lon="7.77826">
        <ele>478</ele>
        <time>2020-07-25T13:39:44+02:00</time>
      </trkpt>
      <trkpt lat="49.05145" lon="7.77809">
        <ele>475</ele>
        <time>2020-07-25T13:41:52+02:00</time>
      </trkpt>
      <trkpt lat="49.05126" lon="7.7779">
        <ele>474</ele>
        <time>2020-07-25T13:41:52+02:00</time>
      </trkpt>
      <trkpt lat="49.05109" lon="7.77766">
        <ele>476</ele>
        <time>2020-07-25T13:41:52+02:00</time>
      </trkpt>
      <trkpt lat="49.05089" lon="7.7775">
        <ele>468</ele>
        <time>2020-07-25T13:41:52+02:00</time>
      </trkpt>
      <trkpt lat="49.05069" lon="7.77731">
        <ele>469</ele>
        <time>2020-07-25T13:41:52+02:00</time>
      </trkpt>
      <trkpt lat="49.05048" lon="7.7772">
        <ele>471</ele>
        <time>2020-07-25T13:44:00+02:00</time>
      </trkpt>
      <trkpt lat="49.05031" lon="7.77697">
        <ele>467</ele>
        <time>2020-07-25T13:44:00+02:00</time>
      </trkpt>
      <trkpt lat="49.05011" lon="7.77679">
        <ele>467</ele>
        <time>2020-07-25T13:44:00+02:00</time>
      </trkpt>
      <trkpt lat="49.04993" lon="7.77657">
        <ele>462</ele>
        <time>2020-07-25T13:46:08+02:00</time>
      </trkpt>
      <trkpt lat="49.04975" lon="7.77635">
        <ele>458</ele>
        <time>2020-07-25T13:46:08+02:00</time>
      </trkpt>
      <trkpt lat="49.04955" lon="7.77616">
        <ele>457</ele>
        <time>2020-07-25T13:46:08+02:00</time>
      </trkpt>
      <trkpt lat="49.04936" lon="7.77595">
        <ele>454</ele>
        <time>2020-07-25T13:46:08+02:00</time>
      </trkpt>
      <trkpt lat="49.04916" lon="7.7758">
        <ele>454</ele>
        <time>2020-07-25T13:48:16+02:00</time>
      </trkpt>
      <trkpt lat="49.04893" lon="7.77575">
        <ele>448</ele>
        <time>2020-07-25T13:48:16+02:00</time>
      </trkpt>
      <trkpt lat="49.04874" lon="7.77556">
        <ele>444</ele>
        <time>2020-07-25T13:48:16+02:00</time>
      </trkpt>
      <trkpt lat="49.04853" lon="7.77541">
        <ele>439</ele>
        <time>2020-07-25T13:50:24+02:00</time>
      </trkpt>
      <trkpt lat="49.04832" lon="7.77527">
        <ele>430</ele>
        <time>2020-07-25T13:50:24+02:00</time>
      </trkpt>
      <trkpt lat="49.0481" lon="7.77518">
        <ele>428</ele>
        <time>2020-07-25T13:50:24+02:00</time>
      </trkpt>
      <trkpt lat="49.04792" lon="7.77497">
        <ele>415</ele>
        <time>2020-07-25T13:52:32+02:00</time>
      </trkpt>
      <trkpt lat="49.04778" lon="7.77469">
        <ele>411</ele>
        <time>2020-07-25T13:52:32+02:00</time>
      </trkpt>
      <trkpt lat="49.04763" lon="7.77441">
        <ele>402</ele>
        <time>2020-07-25T13:52:32+02:00</time>
      </trkpt>
      <trkpt lat="49.04741" lon="7.77445">
        <ele>389</ele>
        <time>2020-07-25T13:54:40+02:00</time>
      </trkpt>
      <trkpt lat="49.04729" lon="7.77476">
        <ele>383</ele>
        <time>2020-07-25T13:54:40+02:00</time>
      </trkpt>
      <trkpt lat="49.04709" lon="7.7746">
        <ele>380</ele>
        <time>2020-07-25T13:54:40+02:00</time>
      </trkpt>
      <trkpt lat="49.04687" lon="7.77445">
        <ele>383</ele>
        <time>2020-07-25T13:54:40+02:00</time>
      </trkpt>
      <trkpt lat="49.04668" lon="7.77427">
        <ele>385</ele>
        <time>2020-07-25T13:56:48+02:00</time>
      </trkpt>
      <trkpt lat="49.04649" lon="7.77405">
        <ele>386</ele>
        <time>2020-07-25T13:56:48+02:00</time>
      </trkpt>
      <trkpt lat="49.0463" lon="7.77385">
        <ele>387</ele>
        <time>2020-07-25T13:56:48+02:00</time>
      </trkpt>
      <trkpt lat="49.04611" lon="7.77365">
        <ele>384</ele>
        <time>2020-07-25T13:56:48+02:00</time>
      </trkpt>
      <trkpt lat="49.04592" lon="7.77346">
        <ele>385</ele>
        <time>2020-07-25T13:56:48+02:00</time>
      </trkpt>
      <trkpt lat="49.04571" lon="7.77332">
        <ele>388</ele>
        <time>2020-07-25T13:56:48+02:00</time>
      </trkpt>
      <trkpt lat="49.04548" lon="7.77328">
        <ele>391</ele>
        <time>2020-07-25T13:58:56+02:00</time>
      </trkpt>
      <trkpt lat="49.04525" lon="7.7733">
        <ele>391</ele>
        <time>2020-07-25T13:58:56+02:00</time>
      </trkpt>
      <trkpt lat="49.04502" lon="7.77336">
        <ele>394</ele>
        <time>2020-07-25T13:58:56+02:00</time>
      </trkpt>
      <trkpt lat="49.04479" lon="7.77337">
        <ele>391</ele>
        <time>2020-07-25T13:58:56+02:00</time>
      </trkpt>
      <trkpt lat="49.04456" lon="7.77329">
        <ele>390</ele>
        <time>2020-07-25T13:58:56+02:00</time>
      </trkpt>
      <trkpt lat="49.04435" lon="7.77318">
        <ele>392</ele>
        <time>2020-07-25T14:01:04+02:00</time>
      </trkpt>
      <trkpt lat="49.04415" lon="7.77298">
        <ele>394</ele>
        <time>2020-07-25T14:01:04+02:00</time>
      </trkpt>
      <trkpt lat="49.04393" lon="7.77288">
        <ele>387</ele>
        <time>2020-07-25T14:01:04+02:00</time>
      </trkpt>
      <trkpt lat="49.04371" lon="7.77286">
        <ele>384</ele>
        <time>2020-07-25T14:01:04+02:00</time>
      </trkpt>
      <trkpt lat="49.04348" lon="7.77274">
        <ele>378</ele>
        <time>2020-07-25T14:01:04+02:00</time>
      </trkpt>
      <trkpt lat="49.04327" lon="7.77256">
        <ele>377</ele>
        <time>2020-07-25T14:01:04+02:00</time>
      </trkpt>
      <trkpt lat="49.04307" lon="7.77239">
        <ele>379</ele>
        <time>2020-07-25T14:01:04+02:00</time>
      </trkpt>
      <trkpt lat="49.0429" lon="7.77216">
        <ele>373</ele>
        <time>2020-07-25T14:03:12+02:00</time>
      </trkpt>
      <trkpt lat="49.04275" lon="7.77189">
        <ele>368</ele>
        <time>2020-07-25T14:03:12+02:00</time>
      </trkpt>
      <trkpt lat="49.04258" lon="7.77164">
        <ele>359</ele>
        <time>2020-07-25T14:03:12+02:00</time>
      </trkpt>
      <trkpt lat="49.04236" lon="7.77151">
        <ele>360</ele>
        <time>2020-07-25T14:03:12+02:00</time>
      </trkpt>
      <trkpt lat="49.04217" lon="7.77133">
        <ele>356</ele>
        <time>2020-07-25T14:03:12+02:00</time>
      </trkpt>
      <trkpt lat="49.04202" lon="7.77105">
        <ele>353</ele>
        <time>2020-07-25T14:03:12+02:00</time>
      </trkpt>
      <trkpt lat="49.04185" lon="7.77081">
        <ele>351</ele>
        <time>2020-07-25T14:03:12+02:00</time>
      </trkpt>
      <trkpt lat="49.04168" lon="7.77057">
        <ele>349</ele>
        <time>2020-07-25T14:07:28+02:00</time>
      </trkpt>
      <trkpt lat="49.04153" lon="7.77032">
        <ele>347</ele>
        <time>2020-07-25T14:07:28+02:00</time>
      </trkpt>
      <trkpt lat="49.0414" lon="7.77002">
        <ele>342</ele>
        <time>2020-07-25T14:07:28+02:00</time>
      </trkpt>
      <trkpt lat="49.04126" lon="7.76974">
        <ele>341</ele>
        <time>2020-07-25T14:07:28+02:00</time>
      </trkpt>
      <trkpt lat="49.04112" lon="7.76945">
        <ele>339</ele>
        <time>2020-07-25T14:07:28+02:00</time>
      </trkpt>
      <trkpt lat="49.04098" lon="7.76917">
        <ele>335</ele>
        <time>2020-07-25T14:07:28+02:00</time>
      </trkpt>
      <trkpt lat="49.0408" lon="7.76894">
        <ele>330</ele>
        <time>2020-07-25T14:07:28+02:00</time>
      </trkpt>
      <trkpt lat="49.04063" lon="7.76872">
        <ele>327</ele>
        <time>2020-07-25T14:07:28+02:00</time>
      </trkpt>
      <trkpt lat="49.04047" lon="7.76846">
        <ele>327</ele>
        <time>2020-07-25T14:09:36+02:00</time>
      </trkpt>
      <trkpt lat="49.04029" lon="7.76822">
        <ele>322</ele>
        <time>2020-07-25T14:09:36+02:00</time>
      </trkpt>
      <trkpt lat="49.04011" lon="7.76802">
        <ele>319</ele>
        <time>2020-07-25T14:09:36+02:00</time>
      </trkpt>
      <trkpt lat="49.0399" lon="7.76818">
        <ele>312</ele>
        <time>2020-07-25T14:09:36+02:00</time>
      </trkpt>
      <trkpt lat="49.03968" lon="7.76829">
        <ele>311</ele>
        <time>2020-07-25T14:09:36+02:00</time>
      </trkpt>
      <trkpt lat="49.03947" lon="7.76842">
        <ele>307</ele>
        <time>2020-07-25T14:09:36+02:00</time>
      </trkpt>
      <trkpt lat="49.03924" lon="7.76849">
        <ele>304</ele>
        <time>2020-07-25T14:09:36+02:00</time>
      </trkpt>
      <trkpt lat="49.03903" lon="7.76862">
        <ele>299</ele>
        <time>2020-07-25T14:09:36+02:00</time>
      </trkpt>
      <trkpt lat="49.03879" lon="7.76866">
        <ele>293</ele>
        <time>2020-07-25T14:11:44+02:00</time>
      </trkpt>
      <trkpt lat="49.03887" lon="7.76834">
        <ele>289</ele>
        <time>2020-07-25T14:11:44+02:00</time>
      </trkpt>
      <trkpt lat="49.03906" lon="7.76811">
        <ele>290</ele>
        <time>2020-07-25T14:11:44+02:00</time>
      </trkpt>
      <trkpt lat="49.03926" lon="7.76793">
        <ele>294</ele>
        <time>2020-07-25T14:11:44+02:00</time>
      </trkpt>
      <trkpt lat="49.03942" lon="7.76766">
        <ele>293</ele>
        <time>2020-07-25T14:13:52+02:00</time>
      </trkpt>
      <trkpt lat="49.03946" lon="7.76732">
        <ele>289</ele>
        <time>2020-07-25T14:13:52+02:00</time>
      </trkpt>
      <trkpt lat="49.03941" lon="7.76698">
        <ele>285</ele>
        <time>2020-07-25T14:13:52+02:00</time>
      </trkpt>
      <trkpt lat="49.03934" lon="7.76665">
        <ele>282</ele>
        <time>2020-07-25T14:13:52+02:00</time>
      </trkpt>
      <trkpt lat="49.03927" lon="7.76632">
        <ele>281</ele>
        <time>2020-07-25T14:13:52+02:00</time>
      </trkpt>
      <trkpt lat="49.03907" lon="7.76615">
        <ele>273</ele>
        <time>2020-07-25T14:20:16+02:00</time>
      </trkpt>
      <trkpt lat="49.03902" lon="7.76581">
        <ele>270</ele>
        <time>2020-07-25T14:20:16+02:00</time>
      </trkpt>
      <trkpt lat="49.03888" lon="7.76555">
        <ele>261</ele>
        <time>2020-07-25T14:20:16+02:00</time>
      </trkpt>
      <trkpt lat="49.03872" lon="7.76529">
        <ele>261</ele>
        <time>2020-07-25T14:20:16+02:00</time>
      </trkpt>
      <trkpt lat="49.03853" lon="7.76509">
        <ele>260</ele>
        <time>2020-07-25T14:22:24+02:00</time>
      </trkpt>
      <trkpt lat="49.0383" lon="7.76512">
        <ele>252</ele>
        <time>2020-07-25T14:22:24+02:00</time>
      </trkpt>
      <trkpt lat="49.03812" lon="7.76535">
        <ele>253</ele>
        <time>2020-07-25T14:22:24+02:00</time>
      </trkpt>
      <trkpt lat="49.03799" lon="7.76563">
        <ele>257</ele>
        <time>2020-07-25T14:22:24+02:00</time>
      </trkpt>
      <trkpt lat="49.03783" lon="7.76588">
        <ele>254</ele>
        <time>2020-07-25T14:22:24+02:00</time>
      </trkpt>
      <trkpt lat="49.03765" lon="7.7661">
        <ele>259</ele>
        <time>2020-07-25T14:22:24+02:00</time>
      </trkpt>
      <trkpt lat="49.03745" lon="7.76624">
        <ele>257</ele>
        <time>2020-07-25T14:22:24+02:00</time>
      </trkpt>
      <trkpt lat="49.03722" lon="7.76628">
        <ele>255</ele>
        <time>2020-07-25T14:22:24+02:00</time>
      </trkpt>
      <trkpt lat="49.03701" lon="7.76631">
        <ele>275</ele>
        <time>2020-07-25T14:24:32+02:00</time>
      </trkpt>
      <trkpt lat="49.03679" lon="7.76636">
        <ele>281</ele>
        <time>2020-07-25T14:24:32+02:00</time>
      </trkpt>
      <trkpt lat="49.03657" lon="7.76628">
        <ele>248</ele>
        <time>2020-07-25T14:24:32+02:00</time>
      </trkpt>
      <trkpt lat="49.03634" lon="7.76627">
        <ele>253</ele>
        <time>2020-07-25T14:24:32+02:00</time>
      </trkpt>
      <trkpt lat="49.03611" lon="7.76624">
        <ele>255</ele>
        <time>2020-07-25T14:24:32+02:00</time>
      </trkpt>
      <trkpt lat="49.03588" lon="7.76625">
        <ele>261</ele>
        <time>2020-07-25T14:26:40+02:00</time>
      </trkpt>
      <trkpt lat="49.03566" lon="7.76637">
        <ele>261</ele>
        <time>2020-07-25T14:26:40+02:00</time>
      </trkpt>
      <trkpt lat="49.03545" lon="7.7665">
        <ele>262</ele>
        <time>2020-07-25T14:26:40+02:00</time>
      </trkpt>
      <trkpt lat="49.03525" lon="7.76666">
        <ele>264</ele>
        <time>2020-07-25T14:26:40+02:00</time>
      </trkpt>
      <trkpt lat="49.03507" lon="7.76689">
        <ele>265</ele>
        <time>2020-07-25T14:26:40+02:00</time>
      </trkpt>
      <trkpt lat="49.03488" lon="7.76711">
        <ele>265</ele>
        <time>2020-07-25T14:26:40+02:00</time>
      </trkpt>
      <trkpt lat="49.03468" lon="7.76727">
        <ele>266</ele>
        <time>2020-07-25T14:26:40+02:00</time>
      </trkpt>
      <trkpt lat="49.03446" lon="7.76737">
        <ele>262</ele>
        <time>2020-07-25T14:26:40+02:00</time>
      </trkpt>
      <trkpt lat="49.03423" lon="7.76744">
        <ele>262</ele>
        <time>2020-07-25T14:28:48+02:00</time>
      </trkpt>
      <trkpt lat="49.034" lon="7.76749">
        <ele>268</ele>
        <time>2020-07-25T14:28:48+02:00</time>
      </trkpt>
      <trkpt lat="49.03377" lon="7.76752">
        <ele>272</ele>
        <time>2020-07-25T14:28:48+02:00</time>
      </trkpt>
      <trkpt lat="49.03354" lon="7.76746">
        <ele>270</ele>
        <time>2020-07-25T14:28:48+02:00</time>
      </trkpt>
      <trkpt lat="49.03331" lon="7.76739">
        <ele>269</ele>
        <time>2020-07-25T14:28:48+02:00</time>
      </trkpt>
      <trkpt lat="49.03311" lon="7.76719">
        <ele>266</ele>
        <time>2020-07-25T14:28:48+02:00</time>
      </trkpt>
      <trkpt lat="49.03291" lon="7.76698">
        <ele>268</ele>
        <time>2020-07-25T14:28:48+02:00</time>
      </trkpt>
      <trkpt lat="49.03272" lon="7.76679">
        <ele>268</ele>
        <time>2020-07-25T14:30:56+02:00</time>
      </trkpt>
      <trkpt lat="49.03254" lon="7.76658">
        <ele>268</ele>
        <time>2020-07-25T14:30:56+02:00</time>
      </trkpt>
      <trkpt lat="49.03234" lon="7.76638">
        <ele>265</ele>
        <time>2020-07-25T14:30:56+02:00</time>
      </trkpt>
      <trkpt lat="49.03213" lon="7.76625">
        <ele>264</ele>
        <time>2020-07-25T14:30:56+02:00</time>
      </trkpt>
      <trkpt lat="49.03192" lon="7.7661">
        <ele>257</ele>
        <time>2020-07-25T14:30:56+02:00</time>
      </trkpt>
      <trkpt lat="49.03175" lon="7.76586">
        <ele>252</ele>
        <time>2020-07-25T14:30:56+02:00</time>
      </trkpt>
      <trkpt lat="49.03163" lon="7.76555">
        <ele>256</ele>
        <time>2020-07-25T14:33:04+02:00</time>
      </trkpt>
      <trkpt lat="49.03157" lon="7.76521">
        <ele>254</ele>
        <time>2020-07-25T14:33:04+02:00</time>
      </trkpt>
      <trkpt lat="49.03152" lon="7.76487">
        <ele>254</ele>
        <time>2020-07-25T14:33:04+02:00</time>
      </trkpt>
      <trkpt lat="49.0315" lon="7.76453">
        <ele>254</ele>
        <time>2020-07-25T14:33:04+02:00</time>
      </trkpt>
      <trkpt lat="49.03153" lon="7.76416">
        <ele>255</ele>
        <time>2020-07-25T14:33:04+02:00</time>
      </trkpt>
      <trkpt lat="49.03162" lon="7.76383">
        <ele>255</ele>
        <time>2020-07-25T14:33:04+02:00</time>
      </trkpt>
      <trkpt lat="49.03169" lon="7.76347">
        <ele>255</ele>
        <time>2020-07-25T14:33:04+02:00</time>
      </trkpt>
      <trkpt lat="49.03182" lon="7.76317">
        <ele>257</ele>
        <time>2020-07-25T14:35:12+02:00</time>
      </trkpt>
      <trkpt lat="49.03189" lon="7.76284">
        <ele>252</ele>
        <time>2020-07-25T14:35:12+02:00</time>
      </trkpt>
      <trkpt lat="49.03197" lon="7.7625">
        <ele>252</ele>
        <time>2020-07-25T14:35:12+02:00</time>
      </trkpt>
      <trkpt lat="49.0321" lon="7.76221">
        <ele>251</ele>
        <time>2020-07-25T14:35:12+02:00</time>
      </trkpt>
      <trkpt lat="49.03222" lon="7.76191">
        <ele>249</ele>
        <time>2020-07-25T14:35:12+02:00</time>
      </trkpt>
      <trkpt lat="49.03233" lon="7.76159">
        <ele>252</ele>
        <time>2020-07-25T14:35:12+02:00</time>
      </trkpt>
      <trkpt lat="49.03239" lon="7.76126">
        <ele>253</ele>
        <time>2020-07-25T14:35:12+02:00</time>
      </trkpt>
      <trkpt lat="49.03251" lon="7.76096">
        <ele>254</ele>
        <time>2020-07-25T14:37:20+02:00</time>
      </trkpt>
      <trkpt lat="49.03273" lon="7.76099">
        <ele>256</ele>
        <time>2020-07-25T14:37:20+02:00</time>
      </trkpt>
      <trkpt lat="49.03296" lon="7.76102">
        <ele>261</ele>
        <time>2020-07-25T14:37:20+02:00</time>
      </trkpt>
      <trkpt lat="49.03315" lon="7.76082">
        <ele>265</ele>
        <time>2020-07-25T14:37:20+02:00</time>
      </trkpt>
      <trkpt lat="49.03319" lon="7.76048">
        <ele>267</ele>
        <time>2020-07-25T14:37:20+02:00</time>
      </trkpt>
      <trkpt lat="49.03322" lon="7.76013">
        <ele>264</ele>
        <time>2020-07-25T14:37:20+02:00</time>
      </trkpt>
      <trkpt lat="49.03318" lon="7.75979">
        <ele>264</ele>
        <time>2020-07-25T14:37:20+02:00</time>
      </trkpt>
      <trkpt lat="49.03318" lon="7.75944">
        <ele>265</ele>
        <time>2020-07-25T14:39:28+02:00</time>
      </trkpt>
      <trkpt lat="49.03318" lon="7.75908">
        <ele>261</ele>
        <time>2020-07-25T14:39:28+02:00</time>
      </trkpt>
      <trkpt lat="49.03318" lon="7.75874">
        <ele>261</ele>
        <time>2020-07-25T14:39:28+02:00</time>
      </trkpt>
      <trkpt lat="49.03313" lon="7.7584">
        <ele>262</ele>
        <time>2020-07-25T14:39:28+02:00</time>
      </trkpt>
      <trkpt lat="49.03307" lon="7.75806">
        <ele>258</ele>
        <time>2020-07-25T14:39:28+02:00</time>
      </trkpt>
      <trkpt lat="49.03298" lon="7.75775">
        <ele>257</ele>
        <time>2020-07-25T14:39:28+02:00</time>
      </trkpt>
      <trkpt lat="49.03289" lon="7.75743">
        <ele>258</ele>
        <time>2020-07-25T14:39:28+02:00</time>
      </trkpt>
      <trkpt lat="49.03288" lon="7.75708">
        <ele>257</ele>
        <time>2020-07-25T14:41:36+02:00</time>
      </trkpt>
      <trkpt lat="49.0329" lon="7.75674">
        <ele>259</ele>
        <time>2020-07-25T14:41:36+02:00</time>
      </trkpt>
      <trkpt lat="49.03297" lon="7.7564">
        <ele>262</ele>
        <time>2020-07-25T14:41:36+02:00</time>
      </trkpt>
      <trkpt lat="49.033" lon="7.75605">
        <ele>264</ele>
        <time>2020-07-25T14:41:36+02:00</time>
      </trkpt>
      <trkpt lat="49.03302" lon="7.7557">
        <ele>262</ele>
        <time>2020-07-25T14:41:36+02:00</time>
      </trkpt>
      <trkpt lat="49.03306" lon="7.75536">
        <ele>267</ele>
        <time>2020-07-25T14:41:36+02:00</time>
      </trkpt>
      <trkpt lat="49.03312" lon="7.75501">
        <ele>269</ele>
        <time>2020-07-25T14:41:36+02:00</time>
      </trkpt>
      <trkpt lat="49.03319" lon="7.75468">
        <ele>272</ele>
        <time>2020-07-25T14:43:44+02:00</time>
      </trkpt>
      <trkpt lat="49.03325" lon="7.75434">
        <ele>277</ele>
        <time>2020-07-25T14:43:44+02:00</time>
      </trkpt>
      <trkpt lat="49.03331" lon="7.754">
        <ele>280</ele>
        <time>2020-07-25T14:43:44+02:00</time>
      </trkpt>
      <trkpt lat="49.03338" lon="7.75367">
        <ele>281</ele>
        <time>2020-07-25T14:43:44+02:00</time>
      </trkpt>
      <trkpt lat="49.03346" lon="7.75335">
        <ele>280</ele>
        <time>2020-07-25T14:43:44+02:00</time>
      </trkpt>
      <trkpt lat="49.03353" lon="7.75301">
        <ele>279</ele>
        <time>2020-07-25T14:43:44+02:00</time>
      </trkpt>
      <trkpt lat="49.03361" lon="7.75267">
        <ele>281</ele>
        <time>2020-07-25T14:43:44+02:00</time>
      </trkpt>
      <trkpt lat="49.03361" lon="7.75232">
        <ele>280</ele>
        <time>2020-07-25T14:45:52+02:00</time>
      </trkpt>
      <trkpt lat="49.03367" lon="7.75197">
        <ele>285</ele>
        <time>2020-07-25T14:45:52+02:00</time>
      </trkpt>
      <trkpt lat="49.03376" lon="7.75165">
        <ele>289</ele>
        <time>2020-07-25T14:45:52+02:00</time>
      </trkpt>
      <trkpt lat="49.03384" lon="7.75133">
        <ele>289</ele>
        <time>2020-07-25T14:45:52+02:00</time>
      </trkpt>
      <trkpt lat="49.03386" lon="7.75097">
        <ele>291</ele>
        <time>2020-07-25T14:45:52+02:00</time>
      </trkpt>
      <trkpt lat="49.03387" lon="7.75062">
        <ele>297</ele>
        <time>2020-07-25T14:45:52+02:00</time>
      </trkpt>
      <trkpt lat="49.03389" lon="7.75028">
        <ele>299</ele>
        <time>2020-07-25T14:45:52+02:00</time>
      </trkpt>
      <trkpt lat="49.03387" lon="7.74993">
        <ele>304</ele>
        <time>2020-07-25T14:45:52+02:00</time>
      </trkpt>
      <trkpt lat="49.03386" lon="7.74959">
        <ele>305</ele>
        <time>2020-07-25T14:48:00+02:00</time>
      </trkpt>
      <trkpt lat="49.03383" lon="7.74924">
        <ele>309</ele>
        <time>2020-07-25T14:48:00+02:00</time>
      </trkpt>
      <trkpt lat="49.03381" lon="7.74889">
        <ele>309</ele>
        <time>2020-07-25T14:48:00+02:00</time>
      </trkpt>
      <trkpt lat="49.0338" lon="7.74854">
        <ele>307</ele>
        <time>2020-07-25T14:48:00+02:00</time>
      </trkpt>
      <trkpt lat="49.03383" lon="7.7482">
        <ele>303</ele>
        <time>2020-07-25T14:48:00+02:00</time>
      </trkpt>
      <trkpt lat="49.03384" lon="7.74785">
        <ele>299</ele>
        <time>2020-07-25T14:48:00+02:00</time>
      </trkpt>
      <trkpt lat="49.03396" lon="7.74755">
        <ele>303</ele>
        <time>2020-07-25T14:50:08+02:00</time>
      </trkpt>
      <trkpt lat="49.03416" lon="7.74737">
        <ele>312</ele>
        <time>2020-07-25T14:50:08+02:00</time>
      </trkpt>
      <trkpt lat="49.03438" lon="7.74725">
        <ele>323</ele>
        <time>2020-07-25T14:50:08+02:00</time>
      </trkpt>
      <trkpt lat="49.0346" lon="7.74713">
        <ele>319</ele>
        <time>2020-07-25T14:50:08+02:00</time>
      </trkpt>
      <trkpt lat="49.03482" lon="7.74702">
        <ele>320</ele>
        <time>2020-07-25T14:50:08+02:00</time>
      </trkpt>
      <trkpt lat="49.03505" lon="7.74693">
        <ele>323</ele>
        <time>2020-07-25T14:50:08+02:00</time>
      </trkpt>
      <trkpt lat="49.03527" lon="7.74683">
        <ele>323</ele>
        <time>2020-07-25T14:50:08+02:00</time>
      </trkpt>
      <trkpt lat="49.03548" lon="7.74672">
        <ele>330</ele>
        <time>2020-07-25T14:52:16+02:00</time>
      </trkpt>
      <trkpt lat="49.0357" lon="7.74662">
        <ele>328</ele>
        <time>2020-07-25T14:52:16+02:00</time>
      </trkpt>
      <trkpt lat="49.03594" lon="7.74659">
        <ele>327</ele>
        <time>2020-07-25T14:52:16+02:00</time>
      </trkpt>
      <trkpt lat="49.03617" lon="7.74656">
        <ele>328</ele>
        <time>2020-07-25T14:52:16+02:00</time>
      </trkpt>
      <trkpt lat="49.0364" lon="7.74649">
        <ele>328</ele>
        <time>2020-07-25T14:52:16+02:00</time>
      </trkpt>
      <trkpt lat="49.03663" lon="7.74644">
        <ele>333</ele>
        <time>2020-07-25T14:52:16+02:00</time>
      </trkpt>
      <trkpt lat="49.03687" lon="7.74641">
        <ele>336</ele>
        <time>2020-07-25T14:54:24+02:00</time>
      </trkpt>
      <trkpt lat="49.03709" lon="7.74629">
        <ele>337</ele>
        <time>2020-07-25T14:54:24+02:00</time>
      </trkpt>
      <trkpt lat="49.03726" lon="7.74607">
        <ele>343</ele>
        <time>2020-07-25T14:54:24+02:00</time>
      </trkpt>
      <trkpt lat="49.03722" lon="7.74573">
        <ele>333</ele>
        <time>2020-07-25T14:54:24+02:00</time>
      </trkpt>
      <trkpt lat="49.03715" lon="7.7454">
        <ele>335</ele>
        <time>2020-07-25T14:54:24+02:00</time>
      </trkpt>
      <trkpt lat="49.03705" lon="7.74488">
        <ele>330</ele>
        <time>2020-07-25T14:56:32+02:00</time>
      </trkpt>
      <trkpt lat="49.03682" lon="7.74475">
        <ele>340</ele>
        <time>2020-07-25T14:56:32+02:00</time>
      </trkpt>
      <trkpt lat="49.03684" lon="7.74438">
        <ele>339</ele>
        <time>2020-07-25T14:56:32+02:00</time>
      </trkpt>
      <trkpt lat="49.03674" lon="7.74407">
        <ele>339</ele>
        <time>2020-07-25T14:56:32+02:00</time>
      </trkpt>
      <trkpt lat="49.03654" lon="7.74387">
        <ele>338</ele>
        <time>2020-07-25T14:56:32+02:00</time>
      </trkpt>
      <trkpt lat="49.03635" lon="7.74369">
        <ele>342</ele>
        <time>2020-07-25T14:56:32+02:00</time>
      </trkpt>
      <trkpt lat="49.03626" lon="7.74337">
        <ele>341</ele>
        <time>2020-07-25T14:56:32+02:00</time>
      </trkpt>
      <trkpt lat="49.03634" lon="7.74304">
        <ele>346</ele>
        <time>2020-07-25T14:58:40+02:00</time>
      </trkpt>
      <trkpt lat="49.03652" lon="7.74282">
        <ele>344</ele>
        <time>2020-07-25T14:58:40+02:00</time>
      </trkpt>
      <trkpt lat="49.03673" lon="7.74265">
        <ele>347</ele>
        <time>2020-07-25T14:58:40+02:00</time>
      </trkpt>
      <trkpt lat="49.0369" lon="7.74242">
        <ele>345</ele>
        <time>2020-07-25T14:58:40+02:00</time>
      </trkpt>
      <trkpt lat="49.03676" lon="7.7427">
        <ele>347</ele>
        <time>2020-07-25T15:00:48+02:00</time>
      </trkpt>
      <trkpt lat="49.03662" lon="7.74298">
        <ele>347</ele>
        <time>2020-07-25T15:00:48+02:00</time>
      </trkpt>
      <trkpt lat="49.03682" lon="7.74315">
        <ele>346</ele>
        <time>2020-07-25T15:00:48+02:00</time>
      </trkpt>
      <trkpt lat="49.03705" lon="7.7432">
        <ele>357</ele>
        <time>2020-07-25T15:02:56+02:00</time>
      </trkpt>
      <trkpt lat="49.03727" lon="7.74316">
        <ele>371</ele>
        <time>2020-07-25T15:02:56+02:00</time>
      </trkpt>
      <trkpt lat="49.03708" lon="7.74333">
        <ele>370</ele>
        <time>2020-07-25T15:11:28+02:00</time>
      </trkpt>
      <trkpt lat="49.03728" lon="7.74317">
        <ele>375</ele>
        <time>2020-07-25T15:13:36+02:00</time>
      </trkpt>
      <trkpt lat="49.03831" lon="7.74087">
        <ele>422</ele>
        <time>2020-07-25T15:17:52+02:00</time>
      </trkpt>
      <trkpt lat="49.03764" lon="7.74151">
        <ele>380</ele>
        <time>2020-07-25T15:17:52+02:00</time>
      </trkpt>
      <trkpt lat="49.03814" lon="7.74123">
        <ele>399</ele>
        <time>2020-07-25T15:17:52+02:00</time>
      </trkpt>
      <trkpt lat="49.03836" lon="7.74112">
        <ele>400</ele>
        <time>2020-07-25T15:17:52+02:00</time>
      </trkpt>
      <trkpt lat="49.03859" lon="7.74108">
        <ele>401</ele>
        <time>2020-07-25T15:17:52+02:00</time>
      </trkpt>
      <trkpt lat="49.03873" lon="7.74081">
        <ele>407</ele>
        <time>2020-07-25T15:20:00+02:00</time>
      </trkpt>
      <trkpt lat="49.0387" lon="7.74047">
        <ele>412</ele>
        <time>2020-07-25T15:20:00+02:00</time>
      </trkpt>
      <trkpt lat="49.03862" lon="7.74014">
        <ele>410</ele>
        <time>2020-07-25T15:20:00+02:00</time>
      </trkpt>
      <trkpt lat="49.03858" lon="7.7398">
        <ele>412</ele>
        <time>2020-07-25T15:20:00+02:00</time>
      </trkpt>
      <trkpt lat="49.03854" lon="7.73944">
        <ele>411</ele>
        <time>2020-07-25T15:20:00+02:00</time>
      </trkpt>
      <trkpt lat="49.03845" lon="7.73911">
        <ele>414</ele>
        <time>2020-07-25T15:20:00+02:00</time>
      </trkpt>
      <trkpt lat="49.03853" lon="7.73878">
        <ele>409</ele>
        <time>2020-07-25T15:22:08+02:00</time>
      </trkpt>
      <trkpt lat="49.03847" lon="7.73844">
        <ele>409</ele>
        <time>2020-07-25T15:22:08+02:00</time>
      </trkpt>
      <trkpt lat="49.03835" lon="7.73815">
        <ele>412</ele>
        <time>2020-07-25T15:22:08+02:00</time>
      </trkpt>
      <trkpt lat="49.03819" lon="7.73788">
        <ele>416</ele>
        <time>2020-07-25T15:24:16+02:00</time>
      </trkpt>
      <trkpt lat="49.03806" lon="7.73759">
        <ele>419</ele>
        <time>2020-07-25T15:24:16+02:00</time>
      </trkpt>
      <trkpt lat="49.0379" lon="7.73732">
        <ele>420</ele>
        <time>2020-07-25T15:24:16+02:00</time>
      </trkpt>
      <trkpt lat="49.03772" lon="7.73713">
        <ele>420</ele>
        <time>2020-07-25T15:24:16+02:00</time>
      </trkpt>
      <trkpt lat="49.03751" lon="7.73696">
        <ele>419</ele>
        <time>2020-07-25T15:24:16+02:00</time>
      </trkpt>
      <trkpt lat="49.03727" lon="7.73693">
        <ele>419</ele>
        <time>2020-07-25T15:24:16+02:00</time>
      </trkpt>
      <trkpt lat="49.03707" lon="7.7368">
        <ele>419</ele>
        <time>2020-07-25T15:26:24+02:00</time>
      </trkpt>
      <trkpt lat="49.03685" lon="7.73673">
        <ele>420</ele>
        <time>2020-07-25T15:26:24+02:00</time>
      </trkpt>
      <trkpt lat="49.03662" lon="7.73665">
        <ele>415</ele>
        <time>2020-07-25T15:26:24+02:00</time>
      </trkpt>
      <trkpt lat="49.03639" lon="7.73655">
        <ele>416</ele>
        <time>2020-07-25T15:26:24+02:00</time>
      </trkpt>
      <trkpt lat="49.03616" lon="7.73654">
        <ele>417</ele>
        <time>2020-07-25T15:26:24+02:00</time>
      </trkpt>
      <trkpt lat="49.03593" lon="7.73648">
        <ele>421</ele>
        <time>2020-07-25T15:26:24+02:00</time>
      </trkpt>
      <trkpt lat="49.03569" lon="7.73652">
        <ele>427</ele>
        <time>2020-07-25T15:26:24+02:00</time>
      </trkpt>
      <trkpt lat="49.03547" lon="7.73643">
        <ele>428</ele>
        <time>2020-07-25T15:28:32+02:00</time>
      </trkpt>
      <trkpt lat="49.03525" lon="7.73633">
        <ele>426</ele>
        <time>2020-07-25T15:28:32+02:00</time>
      </trkpt>
      <trkpt lat="49.03502" lon="7.73635">
        <ele>424</ele>
        <time>2020-07-25T15:28:32+02:00</time>
      </trkpt>
      <trkpt lat="49.03478" lon="7.73629">
        <ele>425</ele>
        <time>2020-07-25T15:30:40+02:00</time>
      </trkpt>
      <trkpt lat="49.03456" lon="7.7362">
        <ele>427</ele>
        <time>2020-07-25T15:32:48+02:00</time>
      </trkpt>
      <trkpt lat="49.03432" lon="7.73621">
        <ele>422</ele>
        <time>2020-07-25T15:32:48+02:00</time>
      </trkpt>
      <trkpt lat="49.03409" lon="7.73629">
        <ele>423</ele>
        <time>2020-07-25T15:32:48+02:00</time>
      </trkpt>
      <trkpt lat="49.03387" lon="7.73637">
        <ele>424</ele>
        <time>2020-07-25T15:32:48+02:00</time>
      </trkpt>
      <trkpt lat="49.03365" lon="7.73624">
        <ele>424</ele>
        <time>2020-07-25T15:32:48+02:00</time>
      </trkpt>
      <trkpt lat="49.0335" lon="7.73597">
        <ele>426</ele>
        <time>2020-07-25T15:34:56+02:00</time>
      </trkpt>
      <trkpt lat="49.03346" lon="7.73563">
        <ele>432</ele>
        <time>2020-07-25T15:34:56+02:00</time>
      </trkpt>
      <trkpt lat="49.03351" lon="7.73527">
        <ele>434</ele>
        <time>2020-07-25T15:34:56+02:00</time>
      </trkpt>
      <trkpt lat="49.03342" lon="7.73496">
        <ele>435</ele>
        <time>2020-07-25T15:34:56+02:00</time>
      </trkpt>
      <trkpt lat="49.03339" lon="7.73462">
        <ele>442</ele>
        <time>2020-07-25T15:34:56+02:00</time>
      </trkpt>
      <trkpt lat="49.03333" lon="7.73427">
        <ele>442</ele>
        <time>2020-07-25T15:34:56+02:00</time>
      </trkpt>
      <trkpt lat="49.03334" lon="7.73392">
        <ele>440</ele>
        <time>2020-07-25T15:39:12+02:00</time>
      </trkpt>
      <trkpt lat="49.03339" lon="7.73358">
        <ele>438</ele>
        <time>2020-07-25T15:39:12+02:00</time>
      </trkpt>
      <trkpt lat="49.03353" lon="7.73329">
        <ele>440</ele>
        <time>2020-07-25T15:39:12+02:00</time>
      </trkpt>
      <trkpt lat="49.03366" lon="7.733">
        <ele>439</ele>
        <time>2020-07-25T15:39:12+02:00</time>
      </trkpt>
      <trkpt lat="49.03383" lon="7.73277">
        <ele>438</ele>
        <time>2020-07-25T15:39:12+02:00</time>
      </trkpt>
      <trkpt lat="49.03406" lon="7.7327">
        <ele>433</ele>
        <time>2020-07-25T15:39:12+02:00</time>
      </trkpt>
      <trkpt lat="49.03429" lon="7.7327">
        <ele>431</ele>
        <time>2020-07-25T15:39:12+02:00</time>
      </trkpt>
      <trkpt lat="49.03452" lon="7.73273">
        <ele>431</ele>
        <time>2020-07-25T15:41:20+02:00</time>
      </trkpt>
      <trkpt lat="49.03475" lon="7.73274">
        <ele>433</ele>
        <time>2020-07-25T15:41:20+02:00</time>
      </trkpt>
      <trkpt lat="49.03498" lon="7.73278">
        <ele>434</ele>
        <time>2020-07-25T15:41:20+02:00</time>
      </trkpt>
      <trkpt lat="49.03521" lon="7.73277">
        <ele>435</ele>
        <time>2020-07-25T15:41:20+02:00</time>
      </trkpt>
      <trkpt lat="49.03544" lon="7.73274">
        <ele>435</ele>
        <time>2020-07-25T15:41:20+02:00</time>
      </trkpt>
      <trkpt lat="49.03566" lon="7.73268">
        <ele>430</ele>
        <time>2020-07-25T15:41:20+02:00</time>
      </trkpt>
      <trkpt lat="49.03589" lon="7.73265">
        <ele>429</ele>
        <time>2020-07-25T15:41:20+02:00</time>
      </trkpt>
      <trkpt lat="49.03612" lon="7.73257">
        <ele>429</ele>
        <time>2020-07-25T15:43:28+02:00</time>
      </trkpt>
      <trkpt lat="49.03632" lon="7.73239">
        <ele>429</ele>
        <time>2020-07-25T15:43:28+02:00</time>
      </trkpt>
      <trkpt lat="49.0365" lon="7.73215">
        <ele>426</ele>
        <time>2020-07-25T15:43:28+02:00</time>
      </trkpt>
      <trkpt lat="49.0367" lon="7.73198">
        <ele>427</ele>
        <time>2020-07-25T15:43:28+02:00</time>
      </trkpt>
      <trkpt lat="49.03693" lon="7.73188">
        <ele>429</ele>
        <time>2020-07-25T15:43:28+02:00</time>
      </trkpt>
      <trkpt lat="49.0383" lon="7.73152">
        <ele>440</ele>
        <time>2020-07-25T15:45:36+02:00</time>
      </trkpt>
      <trkpt lat="49.03852" lon="7.73156">
        <ele>422</ele>
        <time>2020-07-25T15:45:36+02:00</time>
      </trkpt>
      <trkpt lat="49.03875" lon="7.73156">
        <ele>424</ele>
        <time>2020-07-25T15:47:44+02:00</time>
      </trkpt>
      <trkpt lat="49.03898" lon="7.73152">
        <ele>419</ele>
        <time>2020-07-25T15:47:44+02:00</time>
      </trkpt>
      <trkpt lat="49.03921" lon="7.73152">
        <ele>420</ele>
        <time>2020-07-25T15:47:44+02:00</time>
      </trkpt>
      <trkpt lat="49.03943" lon="7.73147">
        <ele>418</ele>
        <time>2020-07-25T15:47:44+02:00</time>
      </trkpt>
      <trkpt lat="49.03966" lon="7.73145">
        <ele>419</ele>
        <time>2020-07-25T15:47:44+02:00</time>
      </trkpt>
      <trkpt lat="49.03991" lon="7.73141">
        <ele>417</ele>
        <time>2020-07-25T15:47:44+02:00</time>
      </trkpt>
      <trkpt lat="49.04014" lon="7.73138">
        <ele>415</ele>
        <time>2020-07-25T15:49:52+02:00</time>
      </trkpt>
      <trkpt lat="49.04037" lon="7.73129">
        <ele>416</ele>
        <time>2020-07-25T15:49:52+02:00</time>
      </trkpt>
      <trkpt lat="49.0406" lon="7.73121">
        <ele>416</ele>
        <time>2020-07-25T15:49:52+02:00</time>
      </trkpt>
      <trkpt lat="49.04082" lon="7.73112">
        <ele>414</ele>
        <time>2020-07-25T15:49:52+02:00</time>
      </trkpt>
      <trkpt lat="49.04104" lon="7.73108">
        <ele>410</ele>
        <time>2020-07-25T15:49:52+02:00</time>
      </trkpt>
      <trkpt lat="49.04128" lon="7.73104">
        <ele>417</ele>
        <time>2020-07-25T15:49:52+02:00</time>
      </trkpt>
      <trkpt lat="49.0415" lon="7.731">
        <ele>416</ele>
        <time>2020-07-25T15:49:52+02:00</time>
      </trkpt>
      <trkpt lat="49.04173" lon="7.73088">
        <ele>418</ele>
        <time>2020-07-25T15:49:52+02:00</time>
      </trkpt>
      <trkpt lat="49.04195" lon="7.73078">
        <ele>417</ele>
        <time>2020-07-25T15:52:00+02:00</time>
      </trkpt>
      <trkpt lat="49.04214" lon="7.73059">
        <ele>415</ele>
        <time>2020-07-25T15:52:00+02:00</time>
      </trkpt>
      <trkpt lat="49.04235" lon="7.73047">
        <ele>416</ele>
        <time>2020-07-25T15:52:00+02:00</time>
      </trkpt>
      <trkpt lat="49.04254" lon="7.73028">
        <ele>421</ele>
        <time>2020-07-25T15:52:00+02:00</time>
      </trkpt>
      <trkpt lat="49.04275" lon="7.73015">
        <ele>420</ele>
        <time>2020-07-25T15:54:08+02:00</time>
      </trkpt>
      <trkpt lat="49.04297" lon="7.73008">
        <ele>425</ele>
        <time>2020-07-25T15:54:08+02:00</time>
      </trkpt>
      <trkpt lat="49.0432" lon="7.73002">
        <ele>428</ele>
        <time>2020-07-25T15:54:08+02:00</time>
      </trkpt>
      <trkpt lat="49.04342" lon="7.73001">
        <ele>426</ele>
        <time>2020-07-25T15:54:08+02:00</time>
      </trkpt>
      <trkpt lat="49.04365" lon="7.72995">
        <ele>431</ele>
        <time>2020-07-25T15:54:08+02:00</time>
      </trkpt>
      <trkpt lat="49.04388" lon="7.73">
        <ele>432</ele>
        <time>2020-07-25T15:54:08+02:00</time>
      </trkpt>
      <trkpt lat="49.0441" lon="7.73007">
        <ele>439</ele>
        <time>2020-07-25T15:54:08+02:00</time>
      </trkpt>
      <trkpt lat="49.04433" lon="7.73016">
        <ele>443</ele>
        <time>2020-07-25T15:56:16+02:00</time>
      </trkpt>
      <trkpt lat="49.04454" lon="7.73028">
        <ele>448</ele>
        <time>2020-07-25T15:56:16+02:00</time>
      </trkpt>
      <trkpt lat="49.04475" lon="7.73039">
        <ele>448</ele>
        <time>2020-07-25T15:56:16+02:00</time>
      </trkpt>
      <trkpt lat="49.04497" lon="7.73053">
        <ele>443</ele>
        <time>2020-07-25T15:56:16+02:00</time>
      </trkpt>
      <trkpt lat="49.04514" lon="7.73075">
        <ele>444</ele>
        <time>2020-07-25T15:56:16+02:00</time>
      </trkpt>
      <trkpt lat="49.04533" lon="7.73096">
        <ele>445</ele>
        <time>2020-07-25T15:56:16+02:00</time>
      </trkpt>
      <trkpt lat="49.04552" lon="7.73117">
        <ele>449</ele>
        <time>2020-07-25T15:58:24+02:00</time>
      </trkpt>
      <trkpt lat="49.04569" lon="7.73141">
        <ele>453</ele>
        <time>2020-07-25T15:58:24+02:00</time>
      </trkpt>
      <trkpt lat="49.04588" lon="7.7316">
        <ele>464</ele>
        <time>2020-07-25T15:58:24+02:00</time>
      </trkpt>
      <trkpt lat="49.04609" lon="7.73174">
        <ele>460</ele>
        <time>2020-07-25T15:58:24+02:00</time>
      </trkpt>
      <trkpt lat="49.04624" lon="7.73202">
        <ele>460</ele>
        <time>2020-07-25T15:58:24+02:00</time>
      </trkpt>
      <trkpt lat="49.04636" lon="7.73231">
        <ele>459</ele>
        <time>2020-07-25T15:58:24+02:00</time>
      </trkpt>
      <trkpt lat="49.04645" lon="7.73263">
        <ele>464</ele>
        <time>2020-07-25T16:00:32+02:00</time>
      </trkpt>
      <trkpt lat="49.04658" lon="7.73292">
        <ele>466</ele>
        <time>2020-07-25T16:00:32+02:00</time>
      </trkpt>
      <trkpt lat="49.04673" lon="7.7332">
        <ele>466</ele>
        <time>2020-07-25T16:00:32+02:00</time>
      </trkpt>
      <trkpt lat="49.04689" lon="7.73344">
        <ele>468</ele>
        <time>2020-07-25T16:00:32+02:00</time>
      </trkpt>
      <trkpt lat="49.04708" lon="7.73364">
        <ele>469</ele>
        <time>2020-07-25T16:00:32+02:00</time>
      </trkpt>
      <trkpt lat="49.04728" lon="7.73386">
        <ele>469</ele>
        <time>2020-07-25T16:00:32+02:00</time>
      </trkpt>
      <trkpt lat="49.04748" lon="7.73402">
        <ele>468</ele>
        <time>2020-07-25T16:00:32+02:00</time>
      </trkpt>
      <trkpt lat="49.0477" lon="7.73416">
        <ele>468</ele>
        <time>2020-07-25T16:00:32+02:00</time>
      </trkpt>
      <trkpt lat="49.04789" lon="7.73434">
        <ele>460</ele>
        <time>2020-07-25T16:02:40+02:00</time>
      </trkpt>
      <trkpt lat="49.04809" lon="7.73451">
        <ele>462</ele>
        <time>2020-07-25T16:02:40+02:00</time>
      </trkpt>
      <trkpt lat="49.0483" lon="7.73468">
        <ele>464</ele>
        <time>2020-07-25T16:02:40+02:00</time>
      </trkpt>
      <trkpt lat="49.0485" lon="7.73485">
        <ele>454</ele>
        <time>2020-07-25T16:02:40+02:00</time>
      </trkpt>
      <trkpt lat="49.04869" lon="7.73505">
        <ele>449</ele>
        <time>2020-07-25T16:02:40+02:00</time>
      </trkpt>
      <trkpt lat="49.04889" lon="7.73522">
        <ele>444</ele>
        <time>2020-07-25T16:02:40+02:00</time>
      </trkpt>
      <trkpt lat="49.04911" lon="7.73533">
        <ele>445</ele>
        <time>2020-07-25T16:02:40+02:00</time>
      </trkpt>
      <trkpt lat="49.04934" lon="7.73537">
        <ele>447</ele>
        <time>2020-07-25T16:04:48+02:00</time>
      </trkpt>
      <trkpt lat="49.04958" lon="7.73539">
        <ele>448</ele>
        <time>2020-07-25T16:04:48+02:00</time>
      </trkpt>
      <trkpt lat="49.053" lon="7.73563">
        <ele>427</ele>
        <time>2020-07-25T16:09:04+02:00</time>
      </trkpt>
      <trkpt lat="49.05309" lon="7.73601">
        <ele>423</ele>
        <time>2020-07-25T16:09:04+02:00</time>
      </trkpt>
      <trkpt lat="49.05327" lon="7.7358">
        <ele>430</ele>
        <time>2020-07-25T16:09:04+02:00</time>
      </trkpt>
      <trkpt lat="49.0535" lon="7.73575">
        <ele>425</ele>
        <time>2020-07-25T16:09:04+02:00</time>
      </trkpt>
      <trkpt lat="49.05373" lon="7.73578">
        <ele>414</ele>
        <time>2020-07-25T16:09:04+02:00</time>
      </trkpt>
      <trkpt lat="49.05396" lon="7.73583">
        <ele>412</ele>
        <time>2020-07-25T16:09:04+02:00</time>
      </trkpt>
      <trkpt lat="49.05419" lon="7.73587">
        <ele>415</ele>
        <time>2020-07-25T16:11:12+02:00</time>
      </trkpt>
      <trkpt lat="49.05443" lon="7.73596">
        <ele>419</ele>
        <time>2020-07-25T16:11:12+02:00</time>
      </trkpt>
      <trkpt lat="49.05463" lon="7.73611">
        <ele>426</ele>
        <time>2020-07-25T16:11:12+02:00</time>
      </trkpt>
      <trkpt lat="49.05485" lon="7.73622">
        <ele>417</ele>
        <time>2020-07-25T16:11:12+02:00</time>
      </trkpt>
      <trkpt lat="49.05506" lon="7.73637">
        <ele>409</ele>
        <time>2020-07-25T16:11:12+02:00</time>
      </trkpt>
      <trkpt lat="49.05526" lon="7.73654">
        <ele>406</ele>
        <time>2020-07-25T16:11:12+02:00</time>
      </trkpt>
      <trkpt lat="49.05545" lon="7.73677">
        <ele>404</ele>
        <time>2020-07-25T16:11:12+02:00</time>
      </trkpt>
      <trkpt lat="49.05565" lon="7.73694">
        <ele>403</ele>
        <time>2020-07-25T16:11:12+02:00</time>
      </trkpt>
      <trkpt lat="49.05581" lon="7.73718">
        <ele>395</ele>
        <time>2020-07-25T16:13:20+02:00</time>
      </trkpt>
      <trkpt lat="49.05599" lon="7.73743">
        <ele>390</ele>
        <time>2020-07-25T16:13:20+02:00</time>
      </trkpt>
      <trkpt lat="49.05616" lon="7.73765">
        <ele>389</ele>
        <time>2020-07-25T16:13:20+02:00</time>
      </trkpt>
      <trkpt lat="49.05638" lon="7.73779">
        <ele>387</ele>
        <time>2020-07-25T16:13:20+02:00</time>
      </trkpt>
      <trkpt lat="49.05658" lon="7.73794">
        <ele>385</ele>
        <time>2020-07-25T16:13:20+02:00</time>
      </trkpt>
      <trkpt lat="49.05678" lon="7.73813">
        <ele>387</ele>
        <time>2020-07-25T16:13:20+02:00</time>
      </trkpt>
      <trkpt lat="49.05698" lon="7.7383">
        <ele>390</ele>
        <time>2020-07-25T16:13:20+02:00</time>
      </trkpt>
      <trkpt lat="49.05702" lon="7.73864">
        <ele>388</ele>
        <time>2020-07-25T16:15:28+02:00</time>
      </trkpt>
      <trkpt lat="49.05717" lon="7.73888">
        <ele>384</ele>
        <time>2020-07-25T16:15:28+02:00</time>
      </trkpt>
      <trkpt lat="49.05726" lon="7.7392">
        <ele>379</ele>
        <time>2020-07-25T16:15:28+02:00</time>
      </trkpt>
      <trkpt lat="49.05736" lon="7.73952">
        <ele>377</ele>
        <time>2020-07-25T16:15:28+02:00</time>
      </trkpt>
      <trkpt lat="49.05744" lon="7.73985">
        <ele>378</ele>
        <time>2020-07-25T16:15:28+02:00</time>
      </trkpt>
      <trkpt lat="49.05753" lon="7.74017">
        <ele>380</ele>
        <time>2020-07-25T16:15:28+02:00</time>
      </trkpt>
      <trkpt lat="49.05762" lon="7.74048">
        <ele>377</ele>
        <time>2020-07-25T16:15:28+02:00</time>
      </trkpt>
      <trkpt lat="49.05774" lon="7.74079">
        <ele>367</ele>
        <time>2020-07-25T16:15:28+02:00</time>
      </trkpt>
      <trkpt lat="49.05782" lon="7.74111">
        <ele>364</ele>
        <time>2020-07-25T16:17:36+02:00</time>
      </trkpt>
      <trkpt lat="49.05788" lon="7.74146">
        <ele>356</ele>
        <time>2020-07-25T16:17:36+02:00</time>
      </trkpt>
      <trkpt lat="49.05797" lon="7.74178">
        <ele>357</ele>
        <time>2020-07-25T16:17:36+02:00</time>
      </trkpt>
      <trkpt lat="49.05772" lon="7.74182">
        <ele>359</ele>
        <time>2020-07-25T16:17:36+02:00</time>
      </trkpt>
      <trkpt lat="49.05749" lon="7.74186">
        <ele>363</ele>
        <time>2020-07-25T16:17:36+02:00</time>
      </trkpt>
      <trkpt lat="49.05727" lon="7.74191">
        <ele>364</ele>
        <time>2020-07-25T16:19:44+02:00</time>
      </trkpt>
      <trkpt lat="49.05703" lon="7.74193">
        <ele>363</ele>
        <time>2020-07-25T16:19:44+02:00</time>
      </trkpt>
      <trkpt lat="49.0568" lon="7.74196">
        <ele>366</ele>
        <time>2020-07-25T16:19:44+02:00</time>
      </trkpt>
      <trkpt lat="49.05657" lon="7.74205">
        <ele>365</ele>
        <time>2020-07-25T16:19:44+02:00</time>
      </trkpt>
      <trkpt lat="49.05633" lon="7.74212">
        <ele>363</ele>
        <time>2020-07-25T16:19:44+02:00</time>
      </trkpt>
      <trkpt lat="49.05611" lon="7.74223">
        <ele>362</ele>
        <time>2020-07-25T16:19:44+02:00</time>
      </trkpt>
      <trkpt lat="49.0559" lon="7.74235">
        <ele>362</ele>
        <time>2020-07-25T16:21:52+02:00</time>
      </trkpt>
      <trkpt lat="49.05568" lon="7.74247">
        <ele>360</ele>
        <time>2020-07-25T16:21:52+02:00</time>
      </trkpt>
      <trkpt lat="49.0555" lon="7.74268">
        <ele>361</ele>
        <time>2020-07-25T16:21:52+02:00</time>
      </trkpt>
      <trkpt lat="49.05537" lon="7.74295">
        <ele>363</ele>
        <time>2020-07-25T16:21:52+02:00</time>
      </trkpt>
      <trkpt lat="49.05559" lon="7.74285">
        <ele>356</ele>
        <time>2020-07-25T16:24:00+02:00</time>
      </trkpt>
      <trkpt lat="49.0554" lon="7.74302">
        <ele>352</ele>
        <time>2020-07-25T16:24:00+02:00</time>
      </trkpt>
      <trkpt lat="49.05544" lon="7.74337">
        <ele>349</ele>
        <time>2020-07-25T16:26:08+02:00</time>
      </trkpt>
      <trkpt lat="49.05558" lon="7.74365">
        <ele>348</ele>
        <time>2020-07-25T16:26:08+02:00</time>
      </trkpt>
      <trkpt lat="49.05574" lon="7.7439">
        <ele>346</ele>
        <time>2020-07-25T16:26:08+02:00</time>
      </trkpt>
      <trkpt lat="49.05594" lon="7.74409">
        <ele>347</ele>
        <time>2020-07-25T16:26:08+02:00</time>
      </trkpt>
      <trkpt lat="49.05615" lon="7.74421">
        <ele>346</ele>
        <time>2020-07-25T16:26:08+02:00</time>
      </trkpt>
      <trkpt lat="49.05637" lon="7.74437">
        <ele>343</ele>
        <time>2020-07-25T16:26:08+02:00</time>
      </trkpt>
      <trkpt lat="49.05655" lon="7.74458">
        <ele>341</ele>
        <time>2020-07-25T16:26:08+02:00</time>
      </trkpt>
      <trkpt lat="49.05675" lon="7.74474">
        <ele>339</ele>
        <time>2020-07-25T16:28:16+02:00</time>
      </trkpt>
      <trkpt lat="49.05697" lon="7.74483">
        <ele>339</ele>
        <time>2020-07-25T16:28:16+02:00</time>
      </trkpt>
      <trkpt lat="49.0572" lon="7.7449">
        <ele>336</ele>
        <time>2020-07-25T16:28:16+02:00</time>
      </trkpt>
      <trkpt lat="49.05742" lon="7.74492">
        <ele>329</ele>
        <time>2020-07-25T16:28:16+02:00</time>
      </trkpt>
      <trkpt lat="49.05764" lon="7.74501">
        <ele>319</ele>
        <time>2020-07-25T16:28:16+02:00</time>
      </trkpt>
      <trkpt lat="49.05787" lon="7.74501">
        <ele>312</ele>
        <time>2020-07-25T16:28:16+02:00</time>
      </trkpt>
      <trkpt lat="49.05811" lon="7.74503">
        <ele>308</ele>
        <time>2020-07-25T16:28:16+02:00</time>
      </trkpt>
      <trkpt lat="49.05833" lon="7.74509">
        <ele>295</ele>
        <time>2020-07-25T16:30:24+02:00</time>
      </trkpt>
      <trkpt lat="49.05839" lon="7.74542">
        <ele>292</ele>
        <time>2020-07-25T16:30:24+02:00</time>
      </trkpt>
      <trkpt lat="49.05841" lon="7.74578">
        <ele>293</ele>
        <time>2020-07-25T16:30:24+02:00</time>
      </trkpt>
      <trkpt lat="49.0584" lon="7.74613">
        <ele>290</ele>
        <time>2020-07-25T16:30:24+02:00</time>
      </trkpt>
      <trkpt lat="49.05836" lon="7.74648">
        <ele>288</ele>
        <time>2020-07-25T16:30:24+02:00</time>
      </trkpt>
      <trkpt lat="49.05836" lon="7.74683">
        <ele>289</ele>
        <time>2020-07-25T16:30:24+02:00</time>
      </trkpt>
      <trkpt lat="49.05859" lon="7.74678">
        <ele>285</ele>
        <time>2020-07-25T16:32:32+02:00</time>
      </trkpt>
      <trkpt lat="49.05875" lon="7.74653">
        <ele>282</ele>
        <time>2020-07-25T16:32:32+02:00</time>
      </trkpt>
      <trkpt lat="49.05892" lon="7.7463">
        <ele>281</ele>
        <time>2020-07-25T16:32:32+02:00</time>
      </trkpt>
      <trkpt lat="49.05913" lon="7.74617">
        <ele>282</ele>
        <time>2020-07-25T16:32:32+02:00</time>
      </trkpt>
      <trkpt lat="49.05931" lon="7.74596">
        <ele>278</ele>
        <time>2020-07-25T16:32:32+02:00</time>
      </trkpt>
      <trkpt lat="49.05952" lon="7.74583">
        <ele>284</ele>
        <time>2020-07-25T16:34:40+02:00</time>
      </trkpt>
      <trkpt lat="49.05975" lon="7.74576">
        <ele>286</ele>
        <time>2020-07-25T16:34:40+02:00</time>
      </trkpt>
      <trkpt lat="49.05997" lon="7.74569">
        <ele>282</ele>
        <time>2020-07-25T16:34:40+02:00</time>
      </trkpt>
      <trkpt lat="49.0602" lon="7.74573">
        <ele>278</ele>
        <time>2020-07-25T16:34:40+02:00</time>
      </trkpt>
      <trkpt lat="49.06029" lon="7.74605">
        <ele>269</ele>
        <time>2020-07-25T16:34:40+02:00</time>
      </trkpt>
      <trkpt lat="49.06013" lon="7.7463">
        <ele>266</ele>
        <time>2020-07-25T16:36:48+02:00</time>
      </trkpt>
    </trkseg>
  </trk>
</gpx>